Observation data for Fort Lewis CO on 02/21/2019      Previous  Date       Current Mesonet Observations  Soil Data  Daily Summary Page  Observations in Plain Language
KFL1 210600Z 06009G14KT M09/M11 A2968 RMK A01 T10931108  RH  089%=      5-min Rain = 0
KFL1 210601Z 06009KT M09/M11 A2967 RMK A01 T10941108  RH  089%=      5-min Rain = 0
KFL1 210602Z 07007KT M09/M11 A2967 RMK A01 T10931107  RH  089%=      5-min Rain = 0
KFL1 210603Z 07008KT M09/M11 A2967 RMK A01 T10941108  RH  089%=      5-min Rain = 0
KFL1 210604Z 07007KT M09/M11 A2967 RMK A01 T10941108  RH  089%=      5-min Rain = 0
KFL1 210605Z 07008G13KT M09/M11 A2967 RMK A01 T10921106  RH  090%=      5-min Rain = 0
KFL1 210606Z 06008KT M09/M11 A2967 RMK A01 T10941108  RH  089%=      5-min Rain = 0
KFL1 210607Z 06010KT M10/M11 A2967 RMK A01 T10951109  RH  090%=      5-min Rain = 0
KFL1 210608Z 07009KT M09/M11 A2967 RMK A01 T10931107  RH  090%=      5-min Rain = 0
KFL1 210609Z 06010KT M09/M11 A2967 RMK A01 T10931107  RH  090%=      5-min Rain = 0
KFL1 210610Z 06007KT M09/M11 A2967 RMK A01 T10931107  RH  090%=      5-min Rain = 0
KFL1 210611Z 06008KT M09/M11 A2967 RMK A01 T10931107  RH  090%=      5-min Rain = 0
KFL1 210612Z 06008KT M09/M11 A2967 RMK A01 T10931107  RH  090%=      5-min Rain = 0
KFL1 210613Z 06009G14KT M09/M11 A2967 RMK A01 T10931107  RH  090%=      5-min Rain = 0
KFL1 210614Z 06009KT M09/M11 A2967 RMK A01 T10931106  RH  090%=      5-min Rain = 0
KFL1 210615Z 06011KT M09/M11 A2967 RMK A01 T10921106  RH  090%=      5-min Rain = 0
KFL1 210616Z 05012KT M09/M11 A2967 RMK A01 T10931107  RH  090%=      5-min Rain = 0
KFL1 210617Z 05012KT M09/M11 A2967 RMK A01 T10931107  RH  090%=      5-min Rain = 0
KFL1 210618Z 06009KT M09/M11 A2967 RMK A01 T10931107  RH  089%=      5-min Rain = 0
KFL1 210619Z 06009G14KT M09/M11 A2967 RMK A01 T10931107  RH  089%=      5-min Rain = 0
KFL1 210620Z 06010KT M09/M11 A2967 RMK A01 T10921106  RH  089%=      5-min Rain = 0
KFL1 210621Z 06010KT M09/M11 A2967 RMK A01 T10921107  RH  089%=      5-min Rain = 0
KFL1 210622Z 06008KT M09/M11 A2967 RMK A01 T10931108  RH  089%=      5-min Rain = 0
KFL1 210623Z 06010KT M09/M11 A2967 RMK A01 T10931107  RH  089%=      5-min Rain = 0
KFL1 210624Z 06007KT M09/M11 A2967 RMK A01 T10921106  RH  089%=      5-min Rain = 0
KFL1 210625Z 07006KT M09/M11 A2967 RMK A01 T10931107  RH  089%=      5-min Rain = 0
KFL1 210626Z 06009KT M09/M11 A2967 RMK A01 T10921106  RH  089%=      5-min Rain = 0
KFL1 210627Z 08008KT M09/M11 A2967 RMK A01 T10921106  RH  090%=      5-min Rain = 0
KFL1 210628Z 09009KT M09/M11 A2967 RMK A01 T10931106  RH  090%=      5-min Rain = 0
KFL1 210629Z 09008KT M09/M11 A2967 RMK A01 T10921105  RH  090%=      5-min Rain = 0
KFL1 210630Z 09007KT M09/M11 A2967 RMK A01 T10931106  RH  090%=      5-min Rain = 0
KFL1 210631Z 09007KT M09/M11 A2967 RMK A01 T10921106  RH  090%=      5-min Rain = 0
KFL1 210632Z 08010KT M09/M11 A2967 RMK A01 T10921105  RH  090%=      5-min Rain = 0
KFL1 210633Z 06010KT M09/M11 A2967 RMK A01 T10931106  RH  090%=      5-min Rain = 0
KFL1 210634Z 06006KT M09/M11 A2967 RMK A01 T10921106  RH  090%=      5-min Rain = 0
KFL1 210635Z 06008KT M09/M11 A2967 RMK A01 T10921106  RH  090%=      5-min Rain = 0
KFL1 210636Z 06009KT M09/M11 A2967 RMK A01 T10931107  RH  090%=      5-min Rain = 0
KFL1 210637Z 06010KT M09/M11 A2967 RMK A01 T10911105  RH  090%=      5-min Rain = 0
KFL1 210638Z 08009KT M09/M11 A2967 RMK A01 T10921105  RH  090%=      5-min Rain = 0
KFL1 210639Z 07008KT M09/M11 A2967 RMK A01 T10921106  RH  090%=      5-min Rain = 0
KFL1 210640Z 08009KT M09/M11 A2967 RMK A01 T10911105  RH  090%=      5-min Rain = 0
KFL1 210641Z 07009KT M09/M11 A2967 RMK A01 T10921106  RH  089%=      5-min Rain = 0
KFL1 210642Z 06006KT M09/M11 A2967 RMK A01 T10901105  RH  089%=      5-min Rain = 0
KFL1 210643Z 07007KT M09/M11 A2967 RMK A01 T10911106  RH  089%=      5-min Rain = 0
KFL1 210644Z 08006KT M09/M11 A2967 RMK A01 T10911105  RH  090%=      5-min Rain = 0
KFL1 210645Z 07007KT M09/M11 A2967 RMK A01 T10911105  RH  090%=      5-min Rain = 0
KFL1 210646Z 07008KT M09/M11 A2967 RMK A01 T10921106  RH  090%=      5-min Rain = 0
KFL1 210647Z 07007KT M09/M10 A2967 RMK A01 T10911104  RH  090%=      5-min Rain = 0
KFL1 210648Z 07009KT M09/M11 A2967 RMK A01 T10921105  RH  090%=      5-min Rain = 0
KFL1 210649Z 08008KT M09/M11 A2967 RMK A01 T10911105  RH  090%=      5-min Rain = 0
KFL1 210650Z 07009KT M09/M10 A2967 RMK A01 T10911104  RH  090%=      5-min Rain = 0
KFL1 210651Z 07009KT M09/M11 A2967 RMK A01 T10921105  RH  090%=      5-min Rain = 0
KFL1 210652Z 08009KT M09/M10 A2967 RMK A01 T10911104  RH  090%=      5-min Rain = 0
KFL1 210653Z 08008KT M09/M10 A2967 RMK A01 T10911104  RH  091%=      5-min Rain = 0
KFL1 210654Z 08007KT M09/M11 A2967 RMK A01 T10921105  RH  091%=      5-min Rain = 0
KFL1 210655Z 08007KT M09/M10 A2966 RMK A01 T10911103  RH  091%=      5-min Rain = 0
KFL1 210656Z 07006KT M09/M10 A2967 RMK A01 T10911104  RH  091%=      5-min Rain = 0
KFL1 210657Z 08007KT M09/M10 A2967 RMK A01 T10911104  RH  090%=      5-min Rain = 0
KFL1 210658Z 08008KT M09/M10 A2967 RMK A01 T10911104  RH  090%=      5-min Rain = 0
KFL1 210659Z 07007KT M09/M10 A2967 RMK A01 T10911103  RH  090%=      5-min Rain = 0
KFL1 210700Z 07009KT M09/M10 A2967 RMK A01 T10911104  RH  090%=      5-min Rain = 0
KFL1 210701Z 07008KT M09/M10 A2967 RMK A01 T10911103  RH  091%=      5-min Rain = 0
KFL1 210702Z 07008KT M09/M10 A2967 RMK A01 T10911104  RH  091%=      5-min Rain = 0
KFL1 210703Z 08006KT M09/M11 A2967 RMK A01 T10921105  RH  090%=      5-min Rain = 0
KFL1 210704Z 08008KT M09/M10 A2967 RMK A01 T10901103  RH  090%=      5-min Rain = 0
KFL1 210705Z 08009KT M09/M10 A2967 RMK A01 T10911104  RH  090%=      5-min Rain = 0
KFL1 210706Z 07007KT M09/M10 A2967 RMK A01 T10911103  RH  091%=      5-min Rain = 0
KFL1 210707Z 07008KT M09/M10 A2966 RMK A01 T10901103  RH  091%=      5-min Rain = 0
KFL1 210708Z 07007KT M09/M10 A2966 RMK A01 T10911104  RH  091%=      5-min Rain = 0
KFL1 210709Z 07008KT M09/M10 A2966 RMK A01 T10901103  RH  090%=      5-min Rain = 0
KFL1 210710Z 07009KT M09/M11 A2966 RMK A01 T10921105  RH  090%=      5-min Rain = 0
KFL1 210711Z 06007KT M09/M11 A2966 RMK A01 T10911105  RH  090%=      5-min Rain = 0
KFL1 210712Z 07007KT M09/M10 A2966 RMK A01 T10901103  RH  090%=      5-min Rain = 0
KFL1 210713Z 06009KT M09/M10 A2966 RMK A01 T10911104  RH  090%=      5-min Rain = 0
KFL1 210714Z 06009KT M09/M10 A2966 RMK A01 T10911104  RH  090%=      5-min Rain = 0
KFL1 210715Z 06008G13KT M09/M10 A2966 RMK A01 T10901103  RH  090%=      5-min Rain = 0
KFL1 210716Z 06009KT M09/M10 A2966 RMK A01 T10911104  RH  090%=      5-min Rain = 0
KFL1 210717Z 08006KT M09/M10 A2966 RMK A01 T10901104  RH  090%=      5-min Rain = 0
KFL1 210718Z 07007KT M09/M10 A2966 RMK A01 T10901104  RH  090%=      5-min Rain = 0
KFL1 210719Z 06008KT M09/M10 A2966 RMK A01 T10901104  RH  090%=      5-min Rain = 0
KFL1 210720Z 08007KT M09/M10 A2966 RMK A01 T10911104  RH  090%=      5-min Rain = 0
KFL1 210721Z 09008KT M09/M10 A2966 RMK A01 T10901103  RH  090%=      5-min Rain = 0
KFL1 210722Z 08008KT M09/M10 A2966 RMK A01 T10901103  RH  090%=      5-min Rain = 0
KFL1 210723Z 09007KT M09/M11 A2966 RMK A01 T10921105  RH  090%=      5-min Rain = 0
KFL1 210724Z 07008KT M09/M10 A2966 RMK A01 T10901103  RH  091%=      5-min Rain = 0
KFL1 210725Z 07009KT M09/M10 A2966 RMK A01 T10901103  RH  091%=      5-min Rain = 0
KFL1 210726Z 07010KT M09/M10 A2966 RMK A01 T10911104  RH  091%=      5-min Rain = 0
KFL1 210727Z 08008KT M09/M10 A2966 RMK A01 T10901103  RH  091%=      5-min Rain = 0
KFL1 210728Z 08009KT M09/M10 A2966 RMK A01 T10901103  RH  090%=      5-min Rain = 0
KFL1 210729Z 08007KT M09/M10 A2966 RMK A01 T10911103  RH  090%=      5-min Rain = 0
KFL1 210730Z 08009KT M09/M10 A2966 RMK A01 T10901103  RH  091%=      5-min Rain = 0
KFL1 210731Z 08009KT M09/M10 A2966 RMK A01 T10901103  RH  091%=      5-min Rain = 0
KFL1 210732Z 07008KT M09/M10 A2966 RMK A01 T10911104  RH  090%=      5-min Rain = 0
KFL1 210733Z 08010KT M09/M10 A2966 RMK A01 T10901103  RH  091%=      5-min Rain = 0
KFL1 210734Z 07009KT M09/M10 A2966 RMK A01 T10911104  RH  090%=      5-min Rain = 0
KFL1 210735Z 07009KT M09/M10 A2966 RMK A01 T10901102  RH  091%=      5-min Rain = 0
KFL1 210736Z 07007KT M09/M10 A2966 RMK A01 T10911103  RH  091%=      5-min Rain = 0
KFL1 210737Z 08007KT M09/M10 A2966 RMK A01 T10901103  RH  091%=      5-min Rain = 0
KFL1 210738Z 08008KT M09/M10 A2966 RMK A01 T10911104  RH  091%=      5-min Rain = 0
KFL1 210739Z 08008KT M09/M10 A2966 RMK A01 T10891102  RH  091%=      5-min Rain = 0
KFL1 210740Z 08008KT M09/M10 A2966 RMK A01 T10911104  RH  091%=      5-min Rain = 0
KFL1 210741Z 08010KT M09/M10 A2966 RMK A01 T10901103  RH  091%=      5-min Rain = 0
KFL1 210742Z 08007KT M09/M10 A2966 RMK A01 T10911103  RH  091%=      5-min Rain = 0
KFL1 210743Z 08006KT M09/M10 A2966 RMK A01 T10911104  RH  091%=      5-min Rain = 0
KFL1 210744Z 08009KT M09/M10 A2966 RMK A01 T10891102  RH  091%=      5-min Rain = 0
KFL1 210745Z 09008KT M09/M10 A2966 RMK A01 T10901102  RH  091%=      5-min Rain = 0
KFL1 210746Z 09007KT M09/M10 A2966 RMK A01 T10911103  RH  091%=      5-min Rain = 0
KFL1 210747Z 08008KT M09/M10 A2966 RMK A01 T10901102  RH  091%=      5-min Rain = 0
KFL1 210748Z 08007KT M09/M10 A2966 RMK A01 T10891101  RH  091%=      5-min Rain = 0
KFL1 210749Z 08007KT M09/M10 A2966 RMK A01 T10911103  RH  091%=      5-min Rain = 0
KFL1 210750Z 07008KT M09/M10 A2966 RMK A01 T10911103  RH  091%=      5-min Rain = 0
KFL1 210751Z 08007KT M09/M10 A2966 RMK A01 T10891101  RH  091%=      5-min Rain = 0
KFL1 210752Z 08008KT M09/M10 A2966 RMK A01 T10911103  RH  091%=      5-min Rain = 0
KFL1 210753Z 07007KT M09/M10 A2966 RMK A01 T10911103  RH  091%=      5-min Rain = 0
KFL1 210754Z 09008KT M09/M10 A2966 RMK A01 T10901102  RH  091%=      5-min Rain = 0
KFL1 210755Z 08010KT M09/M10 A2966 RMK A01 T10901102  RH  091%=      5-min Rain = 0
KFL1 210756Z 08008KT M09/M10 A2966 RMK A01 T10911103  RH  091%=      5-min Rain = 0
KFL1 210757Z 08007KT M09/M10 A2966 RMK A01 T10901102  RH  091%=      5-min Rain = 0
KFL1 210758Z 08007KT M09/M10 A2966 RMK A01 T10911103  RH  091%=      5-min Rain = 0
KFL1 210759Z 08008KT M09/M10 A2966 RMK A01 T10911103  RH  091%=      5-min Rain = 0
KFL1 210800Z 07009KT M09/M10 A2966 RMK A01 T10901103  RH  091%=      5-min Rain = 0
KFL1 210801Z 08006KT M09/M10 A2966 RMK A01 T10901102  RH  091%=      5-min Rain = 0
KFL1 210802Z 09007KT M09/M10 A2966 RMK A01 T10911104  RH  091%=      5-min Rain = 0
KFL1 210803Z 09008KT M09/M10 A2966 RMK A01 T10901102  RH  091%=      5-min Rain = 0
KFL1 210804Z 09008KT M09/M10 A2966 RMK A01 T10901103  RH  091%=      5-min Rain = 0
KFL1 210805Z 09006KT M09/M10 A2966 RMK A01 T10911103  RH  091%=      5-min Rain = 0
KFL1 210806Z 09007KT M09/M10 A2966 RMK A01 T10901102  RH  091%=      5-min Rain = 0
KFL1 210807Z 08008KT M09/M10 A2966 RMK A01 T10901102  RH  091%=      5-min Rain = 0
KFL1 210808Z 08006KT M09/M10 A2966 RMK A01 T10911103  RH  091%=      5-min Rain = 0
KFL1 210809Z 08008KT M09/M10 A2966 RMK A01 T10891101  RH  091%=      5-min Rain = 0
KFL1 210810Z 09007KT M09/M10 A2966 RMK A01 T10901101  RH  091%=      5-min Rain = 0
KFL1 210811Z 10007KT M09/M10 A2966 RMK A01 T10911102  RH  091%=      5-min Rain = 0
KFL1 210812Z 10006KT M09/M10 A2966 RMK A01 T10901102  RH  091%=      5-min Rain = 0
KFL1 210813Z 10007KT M09/M10 A2966 RMK A01 T10901101  RH  091%=      5-min Rain = 0
KFL1 210814Z 10006KT M09/M10 A2966 RMK A01 T10901102  RH  091%=      5-min Rain = 0
KFL1 210815Z 09005KT M09/M10 A2966 RMK A01 T10901102  RH  091%=      5-min Rain = 0
KFL1 210816Z 08006KT M09/M10 A2966 RMK A01 T10891101  RH  091%=      5-min Rain = 0
KFL1 210817Z 08007KT M09/M10 A2966 RMK A01 T10901102  RH  091%=      5-min Rain = 0
KFL1 210818Z 08008KT M09/M10 A2966 RMK A01 T10911103  RH  091%=      5-min Rain = 0
KFL1 210819Z 08006KT M09/M10 A2966 RMK A01 T10901102  RH  091%=      5-min Rain = 0
KFL1 210820Z 08007KT M09/M10 A2966 RMK A01 T10901101  RH  091%=      5-min Rain = 0
KFL1 210821Z 07006KT M09/M10 A2966 RMK A01 T10901102  RH  091%=      5-min Rain = 0
KFL1 210822Z 08007KT M09/M10 A2966 RMK A01 T10911102  RH  091%=      5-min Rain = 0
KFL1 210823Z 07008KT M09/M10 A2966 RMK A01 T10901101  RH  091%=      5-min Rain = 0
KFL1 210824Z 08007KT M09/M10 A2965 RMK A01 T10911102  RH  091%=      5-min Rain = 0
KFL1 210825Z 08007KT M09/M10 A2965 RMK A01 T10901102  RH  091%=      5-min Rain = 0
KFL1 210826Z 08006KT M09/M10 A2965 RMK A01 T10891100  RH  091%=      5-min Rain = 0
KFL1 210827Z 08008KT M09/M10 A2965 RMK A01 T10901101  RH  091%=      5-min Rain = 0
KFL1 210828Z 08008KT M09/M10 A2965 RMK A01 T10891101  RH  091%=      5-min Rain = 0
KFL1 210829Z 08009KT M09/M10 A2965 RMK A01 T10891101  RH  091%=      5-min Rain = 0
KFL1 210830Z 08007KT M09/M10 A2965 RMK A01 T10901102  RH  091%=      5-min Rain = 0
KFL1 210831Z 07008KT M09/M10 A2965 RMK A01 T10891101  RH  091%=      5-min Rain = 0
KFL1 210832Z 08008KT M09/M10 A2965 RMK A01 T10891101  RH  091%=      5-min Rain = 0
KFL1 210833Z 07009KT M09/M10 A2965 RMK A01 T10901102  RH  091%=      5-min Rain = 0
KFL1 210834Z 07009KT M09/M10 A2965 RMK A01 T10891101  RH  091%=      5-min Rain = 0
KFL1 210835Z 07009KT M09/M10 A2965 RMK A01 T10901102  RH  091%=      5-min Rain = 0
KFL1 210836Z 07009KT M09/M10 A2965 RMK A01 T10901102  RH  091%=      5-min Rain = 0
KFL1 210837Z 08008KT M09/M10 A2965 RMK A01 T10891100  RH  091%=      5-min Rain = 0
KFL1 210838Z 08009KT M09/M10 A2965 RMK A01 T10901102  RH  091%=      5-min Rain = 0
KFL1 210839Z 08007KT M09/M10 A2965 RMK A01 T10901102  RH  091%=      5-min Rain = 0
KFL1 210840Z 08008KT M09/M10 A2965 RMK A01 T10891101  RH  091%=      5-min Rain = 0
KFL1 210841Z 09007KT M09/M10 A2965 RMK A01 T10901102  RH  091%=      5-min Rain = 0
KFL1 210842Z 09007KT M09/M10 A2965 RMK A01 T10901102  RH  091%=      5-min Rain = 0
KFL1 210843Z 08007KT M09/M10 A2965 RMK A01 T10891101  RH  092%=      5-min Rain = 0
KFL1 210844Z 09006KT M09/M10 A2965 RMK A01 T10901101  RH  091%=      5-min Rain = 0
KFL1 210845Z 08006KT M09/M10 A2965 RMK A01 T10901102  RH  091%=      5-min Rain = 0
KFL1 210846Z 09008KT M09/M10 A2965 RMK A01 T10901101  RH  092%=      5-min Rain = 0
KFL1 210847Z 08008KT M09/M10 A2965 RMK A01 T10891101  RH  092%=      5-min Rain = 0
KFL1 210848Z 09008KT M09/M10 A2965 RMK A01 T10901101  RH  091%=      5-min Rain = 0
KFL1 210849Z 08008KT M09/M10 A2965 RMK A01 T10891101  RH  091%=      5-min Rain = 0
KFL1 210850Z 09009KT M09/M10 A2965 RMK A01 T10891101  RH  091%=      5-min Rain = 0
KFL1 210851Z 09008KT M09/M10 A2965 RMK A01 T10901102  RH  091%=      5-min Rain = 0
KFL1 210852Z 09008KT M09/M10 A2965 RMK A01 T10891101  RH  091%=      5-min Rain = 0
KFL1 210853Z 09008KT M09/M10 A2965 RMK A01 T10891100  RH  091%=      5-min Rain = 0
KFL1 210854Z 08008KT M09/M10 A2965 RMK A01 T10881100  RH  091%=      5-min Rain = 0
KFL1 210855Z 08010KT M09/M10 A2965 RMK A01 T10901102  RH  091%=      5-min Rain = 0
KFL1 210856Z 08007KT M09/M10 A2965 RMK A01 T10901101  RH  091%=      5-min Rain = 0
KFL1 210857Z 08009KT M09/M10 A2965 RMK A01 T10891100  RH  091%=      5-min Rain = 0
KFL1 210858Z 08009KT M09/M10 A2965 RMK A01 T10891101  RH  091%=      5-min Rain = 0
KFL1 210859Z 08006KT M09/M10 A2965 RMK A01 T10891100  RH  091%=      5-min Rain = 0
KFL1 210900Z 08008KT M09/M10 A2965 RMK A01 T10891100  RH  091%=      5-min Rain = 0
KFL1 210901Z 08006KT M09/M10 A2965 RMK A01 T10891101  RH  091%=      5-min Rain = 0
KFL1 210902Z 09006KT M09/M10 A2965 RMK A01 T10881100  RH  091%=      5-min Rain = 0
KFL1 210903Z 08005KT M09/M10 A2965 RMK A01 T10901101  RH  091%=      5-min Rain = 0
KFL1 210904Z 07006KT M09/M10 A2965 RMK A01 T10901101  RH  091%=      5-min Rain = 0
KFL1 210905Z 07006KT M09/M10 A2965 RMK A01 T10891100  RH  091%=      5-min Rain = 0
KFL1 210906Z 07006KT M09/M10 A2965 RMK A01 T10891100  RH  091%=      5-min Rain = 0
KFL1 210907Z 09005KT M09/M10 A2965 RMK A01 T10901101  RH  092%=      5-min Rain = 0
KFL1 210908Z 08006KT M09/M10 A2965 RMK A01 T10881100  RH  092%=      5-min Rain = 0
KFL1 210909Z 08007KT M09/M10 A2965 RMK A01 T10901101  RH  092%=      5-min Rain = 0
KFL1 210910Z 08007KT M09/M10 A2965 RMK A01 T10891101  RH  092%=      5-min Rain = 0
KFL1 210911Z 08006KT M09/M10 A2965 RMK A01 T10891101  RH  091%=      5-min Rain = 0
KFL1 210912Z 07005KT M09/M10 A2965 RMK A01 T10901101  RH  091%=      5-min Rain = 0
KFL1 210913Z 07005KT M09/M10 A2965 RMK A01 T10891100  RH  092%=      5-min Rain = 0
KFL1 210914Z 07005KT M09/M10 A2965 RMK A01 T10891100  RH  092%=      5-min Rain = 0
KFL1 210915Z 08007KT M09/M10 A2965 RMK A01 T10891100  RH  092%=      5-min Rain = 0
KFL1 210916Z 07007KT M09/M10 A2964 RMK A01 T10891100  RH  092%=      5-min Rain = 0
KFL1 210917Z 08007KT M09/M10 A2964 RMK A01 T10891100  RH  092%=      5-min Rain = 0
KFL1 210918Z 07007KT M09/M10 A2964 RMK A01 T10901101  RH  092%=      5-min Rain = 0
KFL1 210919Z 08006KT M09/M10 A2964 RMK A01 T10881099  RH  092%=      5-min Rain = 0
KFL1 210920Z 07007KT M09/M10 A2964 RMK A01 T10881099  RH  092%=      5-min Rain = 0
KFL1 210921Z 07007KT M09/M10 A2964 RMK A01 T10901101  RH  092%=      5-min Rain = 0
KFL1 210922Z 07007KT M09/M10 A2964 RMK A01 T10881099  RH  092%=      5-min Rain = 0
KFL1 210923Z 07007KT M09/M10 A2964 RMK A01 T10881100  RH  092%=      5-min Rain = 0
KFL1 210924Z 07006KT M09/M10 A2964 RMK A01 T10901101  RH  092%=      5-min Rain = 0
KFL1 210925Z 07006KT M09/M10 A2964 RMK A01 T10881099  RH  092%=      5-min Rain = 0
KFL1 210926Z 06007KT M09/M10 A2964 RMK A01 T10891100  RH  092%=      5-min Rain = 0
KFL1 210927Z 07007KT M09/M10 A2964 RMK A01 T10891100  RH  092%=      5-min Rain = 0
KFL1 210928Z 07006KT M09/M10 A2964 RMK A01 T10881099  RH  092%=      5-min Rain = 0
KFL1 210929Z 08008KT M09/M10 A2964 RMK A01 T10891100  RH  091%=      5-min Rain = 0
KFL1 210930Z 07005KT M09/M10 A2964 RMK A01 T10881100  RH  092%=      5-min Rain = 0
KFL1 210931Z 07007KT M09/M10 A2964 RMK A01 T10881099  RH  092%=      5-min Rain = 0
KFL1 210932Z 07007KT M09/M10 A2964 RMK A01 T10881099  RH  092%=      5-min Rain = 0
KFL1 210933Z 07007KT M09/M10 A2964 RMK A01 T10891100  RH  092%=      5-min Rain = 0
KFL1 210934Z 07008KT M09/M10 A2964 RMK A01 T10881099  RH  092%=      5-min Rain = 0
KFL1 210935Z 08006KT M09/M10 A2964 RMK A01 T10881099  RH  092%=      5-min Rain = 0
KFL1 210936Z 07007KT M09/M10 A2964 RMK A01 T10891100  RH  091%=      5-min Rain = 0
KFL1 210937Z 07006KT M09/M10 A2964 RMK A01 T10871098  RH  091%=      5-min Rain = 0
KFL1 210938Z 08007KT M09/M10 A2964 RMK A01 T10881099  RH  091%=      5-min Rain = 0
KFL1 210939Z 09005KT M09/M10 A2964 RMK A01 T10881100  RH  091%=      5-min Rain = 0
KFL1 210940Z 09005KT M09/M10 A2964 RMK A01 T10881100  RH  092%=      5-min Rain = 0
KFL1 210941Z 09004KT M09/M10 A2964 RMK A01 T10881099  RH  092%=      5-min Rain = 0
KFL1 210942Z 09005KT M09/M10 A2964 RMK A01 T10881099  RH  092%=      5-min Rain = 0
KFL1 210943Z 08006KT M09/M10 A2964 RMK A01 T10871098  RH  092%=      5-min Rain = 0
KFL1 210944Z 08006KT M09/M10 A2964 RMK A01 T10881099  RH  092%=      5-min Rain = 0
KFL1 210945Z 08007KT M09/M10 A2964 RMK A01 T10881099  RH  092%=      5-min Rain = 0
KFL1 210946Z 09006KT M09/M10 A2964 RMK A01 T10871098  RH  092%=      5-min Rain = 0
KFL1 210947Z 08005KT M09/M10 A2964 RMK A01 T10881099  RH  092%=      5-min Rain = 0
KFL1 210948Z 09005KT M09/M10 A2964 RMK A01 T10881099  RH  092%=      5-min Rain = 0
KFL1 210949Z 09006KT M09/M10 A2964 RMK A01 T10871098  RH  092%=      5-min Rain = 0
KFL1 210950Z 08006KT M09/M10 A2964 RMK A01 T10881099  RH  092%=      5-min Rain = 0
KFL1 210951Z 08007KT M09/M10 A2964 RMK A01 T10881100  RH  092%=      5-min Rain = 0
KFL1 210952Z 09006KT M09/M10 A2964 RMK A01 T10881099  RH  092%=      5-min Rain = 0
KFL1 210953Z 09006KT M09/M10 A2964 RMK A01 T10881099  RH  092%=      5-min Rain = 0
KFL1 210954Z 07006KT M09/M10 A2964 RMK A01 T10881099  RH  092%=      5-min Rain = 0
KFL1 210955Z 08006KT M09/M10 A2963 RMK A01 T10871098  RH  092%=      5-min Rain = 0
KFL1 210956Z 08007KT M09/M10 A2963 RMK A01 T10871099  RH  092%=      5-min Rain = 0
KFL1 210957Z 09006KT M09/M10 A2964 RMK A01 T10881099  RH  091%=      5-min Rain = 0
KFL1 210958Z 09006KT M09/M10 A2964 RMK A01 T10871099  RH  092%=      5-min Rain = 0
KFL1 210959Z 09006KT M09/M10 A2964 RMK A01 T10881099  RH  092%=      5-min Rain = 0
KFL1 211000Z 10007KT M09/M10 A2964 RMK A01 T10881099  RH  092%=      5-min Rain = 0
KFL1 211001Z 08005KT M09/M10 A2964 RMK A01 T10861097  RH  092%=      5-min Rain = 0
KFL1 211002Z 08005KT M09/M10 A2964 RMK A01 T10881099  RH  092%=      5-min Rain = 0
KFL1 211003Z 08007KT M09/M10 A2964 RMK A01 T10891100  RH  092%=      5-min Rain = 0
KFL1 211004Z 08008KT M09/M10 A2964 RMK A01 T10871098  RH  092%=      5-min Rain = 0
KFL1 211005Z 08006KT M09/M10 A2964 RMK A01 T10871099  RH  092%=      5-min Rain = 0
KFL1 211006Z 09006KT M09/M10 A2963 RMK A01 T10881100  RH  092%=      5-min Rain = 0
KFL1 211007Z 08005KT M09/M10 A2963 RMK A01 T10871099  RH  092%=      5-min Rain = 0
KFL1 211008Z 08005KT M09/M10 A2963 RMK A01 T10881100  RH  092%=      5-min Rain = 0
KFL1 211009Z 08006KT M09/M10 A2963 RMK A01 T10891100  RH  092%=      5-min Rain = 0
KFL1 211010Z 08006KT M09/M10 A2963 RMK A01 T10871098  RH  092%=      5-min Rain = 0
KFL1 211011Z 08006KT M09/M10 A2963 RMK A01 T10881099  RH  092%=      5-min Rain = 0
KFL1 211012Z 09006KT M09/M10 A2963 RMK A01 T10881099  RH  092%=      5-min Rain = 0
KFL1 211013Z 09006KT M09/M10 A2963 RMK A01 T10881099  RH  092%=      5-min Rain = 0
KFL1 211014Z 09006KT M09/M10 A2963 RMK A01 T10871098  RH  092%=      5-min Rain = 0
KFL1 211015Z 08006KT M09/M10 A2963 RMK A01 T10891100  RH  092%=      5-min Rain = 0
KFL1 211016Z 09005KT M09/M10 A2963 RMK A01 T10881099  RH  092%=      5-min Rain = 0
KFL1 211017Z 10006KT M09/M10 A2963 RMK A01 T10881099  RH  092%=      5-min Rain = 0
KFL1 211018Z 09007KT M09/M10 A2963 RMK A01 T10891100  RH  092%=      5-min Rain = 0
KFL1 211019Z 08007KT M09/M10 A2963 RMK A01 T10871098  RH  092%=      5-min Rain = 0
KFL1 211020Z 08007KT M09/M10 A2963 RMK A01 T10871098  RH  092%=      5-min Rain = 0
KFL1 211021Z 08008KT M09/M10 A2963 RMK A01 T10881100  RH  092%=      5-min Rain = 0
KFL1 211022Z 09008KT M09/M10 A2963 RMK A01 T10891100  RH  092%=      5-min Rain = 0
KFL1 211023Z 08007KT M09/M10 A2963 RMK A01 T10861097  RH  092%=      5-min Rain = 0
KFL1 211024Z 09007KT M09/M10 A2963 RMK A01 T10881099  RH  092%=      5-min Rain = 0
KFL1 211025Z 09007KT M09/M10 A2963 RMK A01 T10881099  RH  092%=      5-min Rain = 0
KFL1 211026Z 10007KT M09/M10 A2963 RMK A01 T10881099  RH  092%=      5-min Rain = 0
KFL1 211027Z 09006KT M09/M10 A2963 RMK A01 T10881098  RH  092%=      5-min Rain = 0
KFL1 211028Z 09007KT M09/M10 A2963 RMK A01 T10881099  RH  092%=      5-min Rain = 0
KFL1 211029Z 09007KT M09/M10 A2963 RMK A01 T10881099  RH  092%=      5-min Rain = 0
KFL1 211030Z 08008KT M09/M10 A2963 RMK A01 T10871098  RH  092%=      5-min Rain = 0
KFL1 211031Z 09007KT M09/M10 A2963 RMK A01 T10891100  RH  092%=      5-min Rain = 0
KFL1 211032Z 09006KT M09/M10 A2963 RMK A01 T10881099  RH  092%=      5-min Rain = 0
KFL1 211033Z 09006KT M09/M10 A2963 RMK A01 T10881099  RH  092%=      5-min Rain = 0
KFL1 211034Z 09006KT M09/M10 A2963 RMK A01 T10891100  RH  092%=      5-min Rain = 0
KFL1 211035Z 08007KT M09/M10 A2963 RMK A01 T10881098  RH  092%=      5-min Rain = 0
KFL1 211036Z 08008KT M09/M10 A2963 RMK A01 T10881099  RH  092%=      5-min Rain = 0
KFL1 211037Z 09007KT M09/M10 A2963 RMK A01 T10891100  RH  092%=      5-min Rain = 0
KFL1 211038Z 09006KT M09/M10 A2963 RMK A01 T10881099  RH  092%=      5-min Rain = 0
KFL1 211039Z 08006KT M09/M10 A2963 RMK A01 T10891100  RH  092%=      5-min Rain = 0
KFL1 211040Z 08006KT M09/M10 A2963 RMK A01 T10881099  RH  092%=      5-min Rain = 0
KFL1 211041Z 09007KT M09/M10 A2963 RMK A01 T10881099  RH  092%=      5-min Rain = 0
KFL1 211042Z 08009KT M09/M10 A2963 RMK A01 T10891100  RH  092%=      5-min Rain = 0
KFL1 211043Z 08009KT M09/M10 A2963 RMK A01 T10871099  RH  092%=      5-min Rain = 0
KFL1 211044Z 08008KT M09/M10 A2963 RMK A01 T10881100  RH  092%=      5-min Rain = 0
KFL1 211045Z 09007KT M09/M10 A2963 RMK A01 T10891100  RH  092%=      5-min Rain = 0
KFL1 211046Z 09006KT M09/M10 A2963 RMK A01 T10881099  RH  092%=      5-min Rain = 0
KFL1 211047Z 09006KT M09/M10 A2963 RMK A01 T10881100  RH  092%=      5-min Rain = 0
KFL1 211048Z 08006KT M09/M10 A2963 RMK A01 T10881100  RH  092%=      5-min Rain = 0
KFL1 211049Z 09007KT M09/M10 A2963 RMK A01 T10881100  RH  092%=      5-min Rain = 0
KFL1 211050Z 09007KT M09/M10 A2963 RMK A01 T10881100  RH  092%=      5-min Rain = 0
KFL1 211051Z 08007KT M09/M10 A2963 RMK A01 T10881099  RH  092%=      5-min Rain = 0
KFL1 211052Z 09006KT M09/M10 A2963 RMK A01 T10881098  RH  092%=      5-min Rain = 0
KFL1 211053Z 09006KT M09/M10 A2963 RMK A01 T10881099  RH  092%=      5-min Rain = 0
KFL1 211054Z 09006KT M09/M10 A2963 RMK A01 T10891100  RH  092%=      5-min Rain = 0
KFL1 211055Z 09006KT M09/M10 A2963 RMK A01 T10881098  RH  092%=      5-min Rain = 0
KFL1 211056Z 09006KT M09/M10 A2963 RMK A01 T10881099  RH  092%=      5-min Rain = 0
KFL1 211057Z 10005KT M09/M10 A2963 RMK A01 T10891100  RH  092%=      5-min Rain = 0
KFL1 211058Z 09005KT M09/M10 A2963 RMK A01 T10881099  RH  092%=      5-min Rain = 0
KFL1 211059Z 09005KT M09/M10 A2963 RMK A01 T10881099  RH  092%=      5-min Rain = 0
KFL1 211100Z 09007KT M09/M10 A2963 RMK A01 T10891100  RH  092%=      5-min Rain = 0
KFL1 211101Z 09006KT M09/M10 A2963 RMK A01 T10891099  RH  092%=      5-min Rain = 0
KFL1 211102Z 09006KT M09/M10 A2963 RMK A01 T10871098  RH  092%=      5-min Rain = 0
KFL1 211103Z 09006KT M09/M10 A2963 RMK A01 T10891100  RH  092%=      5-min Rain = 0
KFL1 211104Z 10005KT M09/M10 A2963 RMK A01 T10881098  RH  092%=      5-min Rain = 0
KFL1 211105Z 11005KT M09/M10 A2963 RMK A01 T10871098  RH  092%=      5-min Rain = 0
KFL1 211106Z 10005KT M09/M10 A2963 RMK A01 T10891099  RH  092%=      5-min Rain = 0
KFL1 211107Z 09005KT M09/M10 A2963 RMK A01 T10891099  RH  092%=      5-min Rain = 0
KFL1 211108Z 10006KT M09/M10 A2963 RMK A01 T10871097  RH  092%=      5-min Rain = 0
KFL1 211109Z 10005KT M09/M10 A2963 RMK A01 T10881099  RH  092%=      5-min Rain = 0
KFL1 211110Z 09004KT M09/M10 A2963 RMK A01 T10881098  RH  092%=      5-min Rain = 0
KFL1 211111Z 09005KT M09/M10 A2963 RMK A01 T10871097  RH  092%=      5-min Rain = 0
KFL1 211112Z 09006KT M09/M10 A2963 RMK A01 T10881098  RH  092%=      5-min Rain = 0
KFL1 211113Z 10006KT M09/M10 A2963 RMK A01 T10891099  RH  092%=      5-min Rain = 0
KFL1 211114Z 09005KT M09/M10 A2963 RMK A01 T10871097  RH  092%=      5-min Rain = 0
KFL1 211115Z 09005KT M09/M10 A2963 RMK A01 T10881098  RH  092%=      5-min Rain = 0
KFL1 211116Z 09005KT M09/M10 A2963 RMK A01 T10881098  RH  092%=      5-min Rain = 0
KFL1 211117Z 09006KT M09/M10 A2963 RMK A01 T10881099  RH  092%=      5-min Rain = 0
KFL1 211118Z 09005KT M09/M10 A2963 RMK A01 T10871097  RH  092%=      5-min Rain = 0
KFL1 211119Z 09005KT M09/M10 A2963 RMK A01 T10881098  RH  092%=      5-min Rain = 0
KFL1 211120Z 09007KT M09/M10 A2963 RMK A01 T10881098  RH  092%=      5-min Rain = 0
KFL1 211121Z 08007KT M09/M10 A2963 RMK A01 T10881098  RH  092%=      5-min Rain = 0
KFL1 211122Z 08006KT M09/M10 A2963 RMK A01 T10871097  RH  092%=      5-min Rain = 0
KFL1 211123Z 08006KT M09/M10 A2963 RMK A01 T10881098  RH  092%=      5-min Rain = 0
KFL1 211124Z 08006KT M09/M10 A2963 RMK A01 T10881099  RH  092%=      5-min Rain = 0
KFL1 211125Z 09006KT M09/M10 A2963 RMK A01 T10871098  RH  092%=      5-min Rain = 0
KFL1 211126Z 09005KT M09/M10 A2963 RMK A01 T10881099  RH  092%=      5-min Rain = 0
KFL1 211127Z 10004KT M09/M10 A2963 RMK A01 T10881099  RH  092%=      5-min Rain = 0
KFL1 211128Z 09005KT M09/M10 A2963 RMK A01 T10881098  RH  092%=      5-min Rain = 0
KFL1 211129Z 10004KT M09/M10 A2963 RMK A01 T10881099  RH  092%=      5-min Rain = 0
KFL1 211130Z 10004KT M09/M10 A2963 RMK A01 T10881099  RH  092%=      5-min Rain = 0
KFL1 211131Z 10004KT M09/M10 A2963 RMK A01 T10871097  RH  092%=      5-min Rain = 0
KFL1 211132Z 10005KT M09/M10 A2963 RMK A01 T10881099  RH  092%=      5-min Rain = 0
KFL1 211133Z 08006KT M09/M10 A2963 RMK A01 T10881099  RH  092%=      5-min Rain = 0
KFL1 211134Z 09006KT M09/M10 A2963 RMK A01 T10871098  RH  092%=      5-min Rain = 0
KFL1 211135Z 09007KT M09/M10 A2963 RMK A01 T10871098  RH  092%=      5-min Rain = 0
KFL1 211136Z 08005KT M09/M10 A2963 RMK A01 T10881099  RH  092%=      5-min Rain = 0
KFL1 211137Z 08006KT M09/M10 A2963 RMK A01 T10871098  RH  092%=      5-min Rain = 0
KFL1 211138Z 08005KT M09/M10 A2963 RMK A01 T10881099  RH  092%=      5-min Rain = 0
KFL1 211139Z 08007KT M09/M10 A2963 RMK A01 T10891100  RH  092%=      5-min Rain = 0
KFL1 211140Z 07006KT M09/M10 A2963 RMK A01 T10871098  RH  092%=      5-min Rain = 0
KFL1 211141Z 07005KT M09/M10 A2963 RMK A01 T10881099  RH  092%=      5-min Rain = 0
KFL1 211142Z 08005KT M09/M10 A2963 RMK A01 T10881099  RH  092%=      5-min Rain = 0
KFL1 211143Z 09005KT M09/M10 A2963 RMK A01 T10881099  RH  092%=      5-min Rain = 0
KFL1 211144Z 08006KT M09/M10 A2963 RMK A01 T10871097  RH  092%=      5-min Rain = 0
KFL1 211145Z 07006KT M09/M10 A2963 RMK A01 T10881098  RH  092%=      5-min Rain = 0
KFL1 211146Z 09006KT M09/M10 A2963 RMK A01 T10891099  RH  092%=      5-min Rain = 0
KFL1 211147Z 10005KT M09/M10 A2963 RMK A01 T10871097  RH  092%=      5-min Rain = 0
KFL1 211148Z 09005KT M09/M10 A2963 RMK A01 T10871097  RH  092%=      5-min Rain = 0
KFL1 211149Z 09005KT M09/M10 A2963 RMK A01 T10881099  RH  092%=      5-min Rain = 0
KFL1 211150Z 09005KT M09/M10 A2963 RMK A01 T10881099  RH  092%=      5-min Rain = 0
KFL1 211151Z 09005KT M09/M10 A2963 RMK A01 T10861097  RH  092%=      5-min Rain = 0
KFL1 211152Z 09004KT M09/M10 A2963 RMK A01 T10881098  RH  092%=      5-min Rain = 0
KFL1 211153Z 09005KT M09/M10 A2963 RMK A01 T10871097  RH  092%=      5-min Rain = 0
KFL1 211154Z 09004KT M09/M10 A2963 RMK A01 T10871097  RH  092%=      5-min Rain = 0
KFL1 211155Z 11004KT M09/M10 A2963 RMK A01 T10881098  RH  092%=      5-min Rain = 0
KFL1 211156Z 11004KT M09/M10 A2963 RMK A01 T10881098  RH  092%=      5-min Rain = 0
KFL1 211157Z 12004KT M09/M10 A2963 RMK A01 T10861096  RH  092%=      5-min Rain = 0
KFL1 211158Z 10004KT M09/M10 A2963 RMK A01 T10871098  RH  092%=      5-min Rain = 0
KFL1 211159Z 10004KT M09/M10 A2963 RMK A01 T10871097  RH  092%=      5-min Rain = 0
KFL1 211200Z 10004KT M09/M10 A2963 RMK A01 T10861097  RH  092%=      5-min Rain = 0
KFL1 211201Z 08005KT M09/M10 A2963 RMK A01 T10881098  RH  092%=      5-min Rain = 0
KFL1 211202Z 09004KT M09/M10 A2963 RMK A01 T10881098  RH  092%=      5-min Rain = 0
KFL1 211203Z 11004KT M09/M10 A2963 RMK A01 T10861096  RH  092%=      5-min Rain = 0
KFL1 211204Z 10004KT M09/M10 A2963 RMK A01 T10871097  RH  092%=      5-min Rain = 0
KFL1 211205Z 10004KT M09/M10 A2963 RMK A01 T10861096  RH  092%=      5-min Rain = 0
KFL1 211206Z 11004KT M09/M10 A2963 RMK A01 T10851095  RH  092%=      5-min Rain = 0
KFL1 211207Z 11003KT M09/M10 A2963 RMK A01 T10861097  RH  092%=      5-min Rain = 0
KFL1 211208Z 11004KT M09/M10 A2963 RMK A01 T10861096  RH  092%=      5-min Rain = 0
KFL1 211209Z 10004KT M09/M10 A2963 RMK A01 T10861096  RH  093%=      5-min Rain = 0
KFL1 211210Z 09004KT M09/M10 A2963 RMK A01 T10871097  RH  092%=      5-min Rain = 0
KFL1 211211Z 09005KT M09/M10 A2963 RMK A01 T10861096  RH  093%=      5-min Rain = 0
KFL1 211212Z 08005KT M09/M10 A2963 RMK A01 T10861096  RH  093%=      5-min Rain = 0
KFL1 211213Z 07004KT M09/M10 A2963 RMK A01 T10861096  RH  093%=      5-min Rain = 0
KFL1 211214Z 10004KT M09/M10 A2963 RMK A01 T10881098  RH  093%=      5-min Rain = 0
KFL1 211215Z 09003KT M09/M10 A2963 RMK A01 T10871097  RH  093%=      5-min Rain = 0
KFL1 211216Z 10004KT M09/M10 A2963 RMK A01 T10851095  RH  093%=      5-min Rain = 0
KFL1 211217Z 11005KT M09/M10 A2963 RMK A01 T10871097  RH  093%=      5-min Rain = 0
KFL1 211218Z 08004KT M09/M10 A2963 RMK A01 T10861096  RH  093%=      5-min Rain = 0
KFL1 211219Z 08004KT M09/M10 A2963 RMK A01 T10861096  RH  093%=      5-min Rain = 0
KFL1 211220Z 08004KT M09/M10 A2963 RMK A01 T10861096  RH  093%=      5-min Rain = 0
KFL1 211221Z 09003KT M09/M10 A2963 RMK A01 T10871097  RH  093%=      5-min Rain = 0
KFL1 211222Z 08003KT M09/M10 A2963 RMK A01 T10861095  RH  093%=      5-min Rain = 0
KFL1 211223Z 09003KT M09/M10 A2963 RMK A01 T10861096  RH  093%=      5-min Rain = 0
KFL1 211224Z 08004KT M09/M10 A2963 RMK A01 T10871097  RH  093%=      5-min Rain = 0
KFL1 211225Z 09004KT M09/M10 A2963 RMK A01 T10871097  RH  093%=      5-min Rain = 0
KFL1 211226Z 10004KT M09/M10 A2963 RMK A01 T10861095  RH  093%=      5-min Rain = 0
KFL1 211227Z 08004KT M09/M10 A2963 RMK A01 T10871097  RH  093%=      5-min Rain = 0
KFL1 211228Z 09003KT M09/M10 A2963 RMK A01 T10861096  RH  093%=      5-min Rain = 0
KFL1 211229Z 08003KT M09/M10 A2963 RMK A01 T10851095  RH  093%=      5-min Rain = 0
KFL1 211230Z 09003KT M09/M10 A2963 RMK A01 T10861096  RH  093%=      5-min Rain = 0
KFL1 211231Z 09003KT M09/M10 A2963 RMK A01 T10861096  RH  093%=      5-min Rain = 0
KFL1 211232Z 06003KT M09/M10 A2963 RMK A01 T10871097  RH  093%=      5-min Rain = 0
KFL1 211233Z 09003KT M09/M10 A2963 RMK A01 T10861096  RH  093%=      5-min Rain = 0
KFL1 211234Z 09002KT M09/M10 A2963 RMK A01 T10851095  RH  093%=      5-min Rain = 0
KFL1 211235Z 08004KT M09/M10 A2963 RMK A01 T10861096  RH  093%=      5-min Rain = 0
KFL1 211236Z 09004KT M09/M10 A2963 RMK A01 T10871097  RH  092%=      5-min Rain = 0
KFL1 211237Z 08004KT M09/M10 A2963 RMK A01 T10861096  RH  093%=      5-min Rain = 0
KFL1 211238Z 09003KT M09/M10 A2963 RMK A01 T10851095  RH  093%=      5-min Rain = 0
KFL1 211239Z 08003KT M09/M10 A2963 RMK A01 T10871097  RH  093%=      5-min Rain = 0
KFL1 211240Z 09003KT M09/M10 A2963 RMK A01 T10851095  RH  093%=      5-min Rain = 0
KFL1 211241Z 10003KT M09/M10 A2963 RMK A01 T10851095  RH  093%=      5-min Rain = 0
KFL1 211242Z 08004KT M09/M10 A2963 RMK A01 T10861096  RH  093%=      5-min Rain = 0
KFL1 211243Z 08004KT M09/M10 A2963 RMK A01 T10851095  RH  093%=      5-min Rain = 0
KFL1 211244Z 09004KT M08/M09 A2963 RMK A01 T10841094  RH  093%=      5-min Rain = 0
KFL1 211245Z 10003KT M09/M10 A2963 RMK A01 T10851095  RH  093%=      5-min Rain = 0
KFL1 211246Z 10004KT M09/M10 A2963 RMK A01 T10861096  RH  093%=      5-min Rain = 0
KFL1 211247Z 10003KT M09/M09 A2963 RMK A01 T10851094  RH  093%=      5-min Rain = 0
KFL1 211248Z 09004KT M09/M10 A2963 RMK A01 T10851095  RH  093%=      5-min Rain = 0
KFL1 211249Z 09005KT M09/M10 A2963 RMK A01 T10861096  RH  093%=      5-min Rain = 0
KFL1 211250Z 08004KT M09/M09 A2963 RMK A01 T10851094  RH  093%=      5-min Rain = 0
KFL1 211251Z 08003KT M09/M10 A2963 RMK A01 T10861095  RH  093%=      5-min Rain = 0
KFL1 211252Z 09003KT M09/M10 A2963 RMK A01 T10871096  RH  093%=      5-min Rain = 0
KFL1 211253Z 08004KT M09/M10 A2963 RMK A01 T10871096  RH  093%=      5-min Rain = 0
KFL1 211254Z 08003KT M09/M10 A2963 RMK A01 T10851095  RH  093%=      5-min Rain = 0
KFL1 211255Z 08004KT M09/M10 A2963 RMK A01 T10861096  RH  093%=      5-min Rain = 0
KFL1 211256Z 09004KT M09/M10 A2963 RMK A01 T10861096  RH  093%=      5-min Rain = 0
KFL1 211257Z 09004KT M09/M10 A2963 RMK A01 T10861095  RH  093%=      5-min Rain = 0
KFL1 211258Z 08004KT M09/M10 A2963 RMK A01 T10851095  RH  093%=      5-min Rain = 0
KFL1 211259Z 09005KT M09/M10 A2963 RMK A01 T10861096  RH  093%=      5-min Rain = 0
KFL1 211300Z 08004KT M09/M09 A2963 RMK A01 T10851094  RH  093%=      5-min Rain = 0
KFL1 211301Z 08004KT M09/M09 A2963 RMK A01 T10851094  RH  093%=      5-min Rain = 0
KFL1 211302Z 10003KT M09/M10 A2964 RMK A01 T10851095  RH  093%=      5-min Rain = 0
KFL1 211303Z 08004KT M09/M10 A2963 RMK A01 T10861095  RH  093%=      5-min Rain = 0
KFL1 211304Z 10004KT M08/M09 A2963 RMK A01 T10841094  RH  093%=      5-min Rain = 0
KFL1 211305Z 09004KT M09/M10 A2964 RMK A01 T10861095  RH  093%=      5-min Rain = 0
KFL1 211306Z 10003KT M09/M10 A2963 RMK A01 T10861096  RH  093%=      5-min Rain = 0
KFL1 211307Z 11004KT M08/M09 A2963 RMK A01 T10841094  RH  093%=      5-min Rain = 0
KFL1 211308Z 11003KT M09/M09 A2964 RMK A01 T10851094  RH  093%=      5-min Rain = 0
KFL1 211309Z 11003KT M09/M10 A2963 RMK A01 T10861095  RH  093%=      5-min Rain = 0
KFL1 211310Z 11002KT M08/M09 A2964 RMK A01 T10841093  RH  093%=      5-min Rain = 0
KFL1 211311Z 11003KT M08/M09 A2964 RMK A01 T10841093  RH  094%=      5-min Rain = 0
KFL1 211312Z 12003KT M09/M09 A2964 RMK A01 T10851093  RH  094%=      5-min Rain = 0
KFL1 211313Z 11003KT M08/M09 A2964 RMK A01 T10831092  RH  094%=      5-min Rain = 0
KFL1 211314Z 13004KT M08/M09 A2964 RMK A01 T10841093  RH  094%=      5-min Rain = 0
KFL1 211315Z 12005KT M08/M09 A2964 RMK A01 T10841093  RH  094%=      5-min Rain = 0
KFL1 211316Z 12005KT M08/M09 A2964 RMK A01 T10831091  RH  094%=      5-min Rain = 0
KFL1 211317Z 13004KT M08/M09 A2964 RMK A01 T10831091  RH  094%=      5-min Rain = 0
KFL1 211318Z 13004KT M08/M09 A2964 RMK A01 T10841092  RH  094%=      5-min Rain = 0
KFL1 211319Z 14005KT M08/M09 A2964 RMK A01 T10821090  RH  094%=      5-min Rain = 0
KFL1 211320Z 13004KT M08/M09 A2964 RMK A01 T10831091  RH  094%=      5-min Rain = 0
KFL1 211321Z 14003KT M08/M09 A2964 RMK A01 T10831091  RH  094%=      5-min Rain = 0
KFL1 211322Z 13003KT M08/M09 A2964 RMK A01 T10821090  RH  094%=      5-min Rain = 0
KFL1 211323Z 13003KT M08/M09 A2964 RMK A01 T10811089  RH  094%=      5-min Rain = 0
KFL1 211324Z 13004KT M08/M09 A2964 RMK A01 T10831091  RH  094%=      5-min Rain = 0
KFL1 211325Z 14004KT M08/M09 A2964 RMK A01 T10831091  RH  094%=      5-min Rain = 0
KFL1 211326Z 13004KT M08/M09 A2964 RMK A01 T10821090  RH  094%=      5-min Rain = 0
KFL1 211327Z 13004KT M08/M09 A2964 RMK A01 T10811089  RH  094%=      5-min Rain = 0
KFL1 211328Z 13003KT M08/M09 A2964 RMK A01 T10821090  RH  094%=      5-min Rain = 0
KFL1 211329Z 13003KT M08/M09 A2964 RMK A01 T10821090  RH  094%=      5-min Rain = 0
KFL1 211330Z 13003KT M08/M09 A2964 RMK A01 T10811089  RH  094%=      5-min Rain = 0
KFL1 211331Z 13004KT M08/M09 A2964 RMK A01 T10811089  RH  094%=      5-min Rain = 0
KFL1 211332Z 13004KT M08/M09 A2964 RMK A01 T10811089  RH  094%=      5-min Rain = 0
KFL1 211333Z 13003KT M08/M09 A2964 RMK A01 T10811090  RH  094%=      5-min Rain = 0
KFL1 211334Z 13003KT M08/M09 A2964 RMK A01 T10821090  RH  094%=      5-min Rain = 0
KFL1 211335Z 13004KT M08/M09 A2963 RMK A01 T10811089  RH  094%=      5-min Rain = 0
KFL1 211336Z 14004KT M08/M09 A2963 RMK A01 T10801088  RH  094%=      5-min Rain = 0
KFL1 211337Z 14004KT M08/M09 A2963 RMK A01 T10791086  RH  095%=      5-min Rain = 0
KFL1 211338Z 14005KT M08/M09 A2963 RMK A01 T10791086  RH  095%=      5-min Rain = 0
KFL1 211339Z 15004KT M08/M09 A2963 RMK A01 T10781085  RH  095%=      5-min Rain = 0
KFL1 211340Z 16005KT M08/M09 A2963 RMK A01 T10781085  RH  095%=      5-min Rain = 0
KFL1 211341Z 15006KT M08/M09 A2964 RMK A01 T10781085  RH  095%=      5-min Rain = 0
KFL1 211342Z 15006KT M08/M09 A2964 RMK A01 T10781085  RH  095%=      5-min Rain = 0
KFL1 211343Z 16006KT M08/M08 A2964 RMK A01 T10771084  RH  095%=      5-min Rain = 0
KFL1 211344Z 15004KT M08/M08 A2964 RMK A01 T10771084  RH  095%=      5-min Rain = 0
KFL1 211345Z 16005KT M08/M08 A2964 RMK A01 T10761083  RH  095%=      5-min Rain = 0
KFL1 211346Z 15004KT M08/M08 A2964 RMK A01 T10771084  RH  095%=      5-min Rain = 0
KFL1 211347Z 15006KT M08/M08 A2964 RMK A01 T10771084  RH  095%=      5-min Rain = 0
KFL1 211348Z 15004KT M08/M08 A2964 RMK A01 T10751082  RH  095%=      5-min Rain = 0
KFL1 211349Z 15005KT M08/M08 A2964 RMK A01 T10771084  RH  095%=      5-min Rain = 0
KFL1 211350Z 16005KT M08/M08 A2964 RMK A01 T10771084  RH  095%=      5-min Rain = 0
KFL1 211351Z 15005KT M08/M08 A2964 RMK A01 T10751083  RH  095%=      5-min Rain = 0
KFL1 211352Z 15006KT M08/M08 A2964 RMK A01 T10771084  RH  095%=      5-min Rain = 0
KFL1 211353Z 14005KT M08/M08 A2964 RMK A01 T10771084  RH  095%=      5-min Rain = 0
KFL1 211354Z 15005KT M08/M08 A2964 RMK A01 T10761083  RH  095%=      5-min Rain = 0
KFL1 211355Z 14005KT M08/M08 A2964 RMK A01 T10761084  RH  094%=      5-min Rain = 0
KFL1 211356Z 14006KT M08/M08 A2964 RMK A01 T10771084  RH  094%=      5-min Rain = 0
KFL1 211357Z 14004KT M08/M08 A2964 RMK A01 T10771084  RH  094%=      5-min Rain = 0
KFL1 211358Z 14005KT M08/M08 A2964 RMK A01 T10761083  RH  094%=      5-min Rain = 0
KFL1 211359Z 14004KT M08/M08 A2964 RMK A01 T10761084  RH  094%=      5-min Rain = 0
KFL1 211400Z 15005KT M08/M09 A2964 RMK A01 T10771085  RH  094%=      5-min Rain = 0
KFL1 211401Z 14005KT M08/M09 A2964 RMK A01 T10771085  RH  094%=      5-min Rain = 0
KFL1 211402Z 16006KT M08/M08 A2964 RMK A01 T10761084  RH  094%=      5-min Rain = 0
KFL1 211403Z 15004KT M08/M09 A2964 RMK A01 T10771085  RH  094%=      5-min Rain = 0
KFL1 211404Z 16005KT M08/M09 A2964 RMK A01 T10771085  RH  094%=      5-min Rain = 0
KFL1 211405Z 14005KT M08/M08 A2964 RMK A01 T10751083  RH  094%=      5-min Rain = 0
KFL1 211406Z 14003KT M08/M08 A2964 RMK A01 T10761084  RH  094%=      5-min Rain = 0
KFL1 211407Z 15004KT M08/M09 A2964 RMK A01 T10771085  RH  094%=      5-min Rain = 0
KFL1 211408Z 14004KT M08/M09 A2964 RMK A01 T10771085  RH  094%=      5-min Rain = 0
KFL1 211409Z 14003KT M07/M08 A2964 RMK A01 T10741082  RH  094%=      5-min Rain = 0
KFL1 211410Z 15005KT M08/M08 A2964 RMK A01 T10761084  RH  094%=      5-min Rain = 0
KFL1 211411Z 15006KT M08/M09 A2964 RMK A01 T10771086  RH  094%=      5-min Rain = 0
KFL1 211412Z 15005KT M08/M08 A2964 RMK A01 T10761084  RH  094%=      5-min Rain = 0
KFL1 211413Z 16005KT M08/M09 A2964 RMK A01 T10761085  RH  094%=      5-min Rain = 0
KFL1 211414Z 15004KT M08/M09 A2964 RMK A01 T10771086  RH  094%=      5-min Rain = 0
KFL1 211415Z 14005KT M08/M09 A2964 RMK A01 T10771085  RH  094%=      5-min Rain = 0
KFL1 211416Z 14004KT M08/M09 A2964 RMK A01 T10761085  RH  094%=      5-min Rain = 0
KFL1 211417Z 14005KT M08/M09 A2964 RMK A01 T10771085  RH  094%=      5-min Rain = 0
KFL1 211418Z 14005KT M08/M09 A2964 RMK A01 T10771086  RH  094%=      5-min Rain = 0
KFL1 211419Z 14004KT M08/M08 A2964 RMK A01 T10761084  RH  094%=      5-min Rain = 0
KFL1 211420Z 14005KT M08/M08 A2964 RMK A01 T10761084  RH  094%=      5-min Rain = 0
KFL1 211421Z 14005KT M08/M09 A2964 RMK A01 T10771086  RH  094%=      5-min Rain = 0
KFL1 211422Z 13003KT M08/M08 A2964 RMK A01 T10761084  RH  094%=      5-min Rain = 0
KFL1 211423Z 13003KT M08/M08 A2964 RMK A01 T10761084  RH  094%=      5-min Rain = 0
KFL1 211424Z 13003KT M08/M09 A2964 RMK A01 T10761085  RH  094%=      5-min Rain = 0
KFL1 211425Z 11003KT M08/M09 A2964 RMK A01 T10771086  RH  094%=      5-min Rain = 0
KFL1 211426Z 11004KT M08/M09 A2964 RMK A01 T10761085  RH  093%=      5-min Rain = 0
KFL1 211427Z 10005KT M08/M08 A2964 RMK A01 T10751084  RH  093%=      5-min Rain = 0
KFL1 211428Z 11005KT M08/M09 A2964 RMK A01 T10771087  RH  093%=      5-min Rain = 0
KFL1 211429Z 11003KT M08/M09 A2964 RMK A01 T10771087  RH  093%=      5-min Rain = 0
KFL1 211430Z 10005KT M08/M09 A2964 RMK A01 T10761087  RH  093%=      5-min Rain = 0
KFL1 211431Z 11006KT M08/M09 A2964 RMK A01 T10771087  RH  092%=      5-min Rain = 0
KFL1 211432Z 10005KT M08/M09 A2964 RMK A01 T10771088  RH  092%=      5-min Rain = 0
KFL1 211433Z 11005KT M08/M09 A2964 RMK A01 T10771088  RH  092%=      5-min Rain = 0
KFL1 211434Z 10005KT M08/M09 A2964 RMK A01 T10771087  RH  092%=      5-min Rain = 0
KFL1 211435Z 11006KT M08/M09 A2964 RMK A01 T10771088  RH  092%=      5-min Rain = 0
KFL1 211436Z 11005KT M08/M09 A2964 RMK A01 T10781089  RH  092%=      5-min Rain = 0
KFL1 211437Z 11004KT M08/M09 A2964 RMK A01 T10771088  RH  092%=      5-min Rain = 0
KFL1 211438Z 13005KT M08/M09 A2964 RMK A01 T10771088  RH  092%=      5-min Rain = 0
KFL1 211439Z 14004KT M08/M09 A2964 RMK A01 T10771089  RH  091%=      5-min Rain = 0
KFL1 211440Z 13005KT M08/M09 A2965 RMK A01 T10781090  RH  091%=      5-min Rain = 0
KFL1 211441Z 10004KT M08/M09 A2965 RMK A01 T10771089  RH  091%=      5-min Rain = 0
KFL1 211442Z 13005KT M08/M09 A2965 RMK A01 T10771089  RH  091%=      5-min Rain = 0
KFL1 211443Z 12006KT M08/M09 A2965 RMK A01 T10781090  RH  091%=      5-min Rain = 0
KFL1 211444Z 12007KT M08/M09 A2965 RMK A01 T10771089  RH  091%=      5-min Rain = 0
KFL1 211445Z 10005KT M08/M09 A2964 RMK A01 T10771089  RH  091%=      5-min Rain = 0
KFL1 211446Z 11006KT M08/M09 A2964 RMK A01 T10771090  RH  091%=      5-min Rain = 0
KFL1 211447Z 12006KT M08/M09 A2965 RMK A01 T10771089  RH  091%=      5-min Rain = 0
KFL1 211448Z 12007KT M08/M09 A2965 RMK A01 T10761088  RH  091%=      5-min Rain = 0
KFL1 211449Z 13006KT M08/M09 A2965 RMK A01 T10771088  RH  091%=      5-min Rain = 0
KFL1 211450Z 12006KT M08/M09 A2965 RMK A01 T10761088  RH  091%=      5-min Rain = 0
KFL1 211451Z 12007KT M08/M09 A2965 RMK A01 T10771089  RH  091%=      5-min Rain = 0
KFL1 211452Z 11004KT M08/M09 A2965 RMK A01 T10751086  RH  092%=      5-min Rain = 0
KFL1 211453Z 11005KT M08/M09 A2965 RMK A01 T10761088  RH  092%=      5-min Rain = 0
KFL1 211454Z 12007KT M08/M09 A2965 RMK A01 T10771088  RH  091%=      5-min Rain = 0
KFL1 211455Z 12006KT M08/M09 A2965 RMK A01 T10761088  RH  092%=      5-min Rain = 0
KFL1 211456Z 12006KT M08/M09 A2965 RMK A01 T10751087  RH  092%=      5-min Rain = 0
KFL1 211457Z 11005KT M08/M09 A2965 RMK A01 T10761087  RH  092%=      5-min Rain = 0
KFL1 211458Z 11004KT M07/M09 A2965 RMK A01 T10741086  RH  092%=      5-min Rain = 0
KFL1 211459Z 13005KT M08/M09 A2965 RMK A01 T10751086  RH  092%=      5-min Rain = 0
KFL1 211500Z 12004KT M08/M09 A2965 RMK A01 T10761088  RH  092%=      5-min Rain = 0
KFL1 211501Z 12005KT M08/M09 A2965 RMK A01 T10751086  RH  092%=      5-min Rain = 0
KFL1 211502Z 12004KT M08/M09 A2965 RMK A01 T10751087  RH  091%=      5-min Rain = 0
KFL1 211503Z 12002KT M08/M09 A2965 RMK A01 T10761088  RH  091%=      5-min Rain = 0
KFL1 211504Z 12004KT M07/M09 A2965 RMK A01 T10741086  RH  091%=      5-min Rain = 0
KFL1 211505Z 13005KT M07/M09 A2965 RMK A01 T10731085  RH  091%=      5-min Rain = 0
KFL1 211506Z 12005KT M08/M09 A2965 RMK A01 T10751087  RH  091%=      5-min Rain = 0
KFL1 211507Z 12005KT M08/M09 A2965 RMK A01 T10751087  RH  091%=      5-min Rain = 0
KFL1 211508Z 12006KT M08/M09 A2965 RMK A01 T10751087  RH  091%=      5-min Rain = 0
KFL1 211509Z 11005KT M08/M09 A2965 RMK A01 T10751087  RH  091%=      5-min Rain = 0
KFL1 211510Z 12006KT M07/M09 A2965 RMK A01 T10741086  RH  091%=      5-min Rain = 0
KFL1 211511Z 11005KT M08/M09 A2965 RMK A01 T10751087  RH  091%=      5-min Rain = 0
KFL1 211512Z 12005KT M07/M09 A2965 RMK A01 T10741086  RH  091%=      5-min Rain = 0
KFL1 211513Z 12005KT M07/M09 A2965 RMK A01 T10731086  RH  091%=      5-min Rain = 0
KFL1 211514Z 12005KT M08/M09 A2965 RMK A01 T10751088  RH  091%=      5-min Rain = 0
KFL1 211515Z 12004KT M07/M09 A2965 RMK A01 T10741087  RH  091%=      5-min Rain = 0
KFL1 211516Z 12005KT M07/M09 A2965 RMK A01 T10741086  RH  091%=      5-min Rain = 0
KFL1 211517Z 12004KT M07/M09 A2966 RMK A01 T10741086  RH  091%=      5-min Rain = 0
KFL1 211518Z 12005KT M07/M09 A2966 RMK A01 T10741086  RH  091%=      5-min Rain = 0
KFL1 211519Z 12004KT M08/M09 A2966 RMK A01 T10751087  RH  091%=      5-min Rain = 0
KFL1 211520Z 12004KT M07/M09 A2966 RMK A01 T10731085  RH  091%=      5-min Rain = 0
KFL1 211521Z 13004KT M07/M08 A2966 RMK A01 T10721084  RH  091%=      5-min Rain = 0
KFL1 211522Z 13005KT M07/M09 A2966 RMK A01 T10731086  RH  091%=      5-min Rain = 0
KFL1 211523Z 12005KT M07/M09 A2965 RMK A01 T10731086  RH  091%=      5-min Rain = 0
KFL1 211524Z 14006KT M07/M09 A2965 RMK A01 T10721085  RH  091%=      5-min Rain = 0
KFL1 211525Z 14005KT M07/M09 A2965 RMK A01 T10731086  RH  091%=      5-min Rain = 0
KFL1 211526Z 13005KT M07/M09 A2965 RMK A01 T10741086  RH  091%=      5-min Rain = 0
KFL1 211527Z 13004KT M07/M08 A2965 RMK A01 T10711084  RH  091%=      5-min Rain = 0
KFL1 211528Z 12004KT M07/M09 A2965 RMK A01 T10731086  RH  091%=      5-min Rain = 0
KFL1 211529Z 13004KT M07/M09 A2965 RMK A01 T10731085  RH  091%=      5-min Rain = 0
KFL1 211530Z 12005KT M07/M09 A2966 RMK A01 T10731085  RH  091%=      5-min Rain = 0
KFL1 211531Z 11006KT M07/M09 A2965 RMK A01 T10721085  RH  091%=      5-min Rain = 0
KFL1 211532Z 12005KT M07/M08 A2966 RMK A01 T10721084  RH  091%=      5-min Rain = 0
KFL1 211533Z 12004KT M07/M09 A2965 RMK A01 T10721085  RH  091%=      5-min Rain = 0
KFL1 211534Z 13005KT M07/M09 A2966 RMK A01 T10721085  RH  090%=      5-min Rain = 0
KFL1 211535Z 12004KT M07/M08 A2966 RMK A01 T10701083  RH  090%=      5-min Rain = 0
KFL1 211536Z 12005KT M07/M08 A2966 RMK A01 T10701083  RH  091%=      5-min Rain = 0
KFL1 211537Z 12004KT M07/M09 A2965 RMK A01 T10721085  RH  091%=      5-min Rain = 0
KFL1 211538Z 12006KT M07/M09 A2965 RMK A01 T10721085  RH  090%=      5-min Rain = 0
KFL1 211539Z 10006KT M07/M08 A2965 RMK A01 T10711084  RH  090%=      5-min Rain = 0
KFL1 211540Z 12008KT M07/M08 A2965 RMK A01 T10711084  RH  090%=      5-min Rain = 0
KFL1 211541Z 12006KT M07/M08 A2965 RMK A01 T10701084  RH  090%=      5-min Rain = 0
KFL1 211542Z 13004KT M07/M08 A2965 RMK A01 T10711084  RH  090%=      5-min Rain = 0
KFL1 211543Z 12004KT M07/M08 A2965 RMK A01 T10701084  RH  090%=      5-min Rain = 0
KFL1 211544Z 12004KT M07/M08 A2965 RMK A01 T10701084  RH  090%=      5-min Rain = 0
KFL1 211545Z 12005KT M07/M08 A2965 RMK A01 T10701083  RH  090%=      5-min Rain = 0
KFL1 211546Z 12005KT M07/M08 A2965 RMK A01 T10701083  RH  090%=      5-min Rain = 0
KFL1 211547Z 12005KT M07/M08 A2965 RMK A01 T10711084  RH  090%=      5-min Rain = 0
KFL1 211548Z 12005KT M07/M08 A2965 RMK A01 T10701083  RH  090%=      5-min Rain = 0
KFL1 211549Z 12005KT M07/M08 A2966 RMK A01 T10691083  RH  090%=      5-min Rain = 0
KFL1 211550Z 12007KT M07/M08 A2966 RMK A01 T10701084  RH  090%=      5-min Rain = 0
KFL1 211551Z 12007KT M07/M08 A2966 RMK A01 T10701084  RH  090%=      5-min Rain = 0
KFL1 211552Z 12007KT M07/M08 A2966 RMK A01 T10701084  RH  090%=      5-min Rain = 0
KFL1 211553Z 11006KT M07/M08 A2966 RMK A01 T10691083  RH  090%=      5-min Rain = 0
KFL1 211554Z 12006KT M07/M08 A2966 RMK A01 T10701084  RH  090%=      5-min Rain = 0
KFL1 211555Z 11007KT M07/M08 A2966 RMK A01 T10701084  RH  090%=      5-min Rain = 0
KFL1 211556Z 11007KT M07/M08 A2966 RMK A01 T10701084  RH  090%=      5-min Rain = 0
KFL1 211557Z 12009KT M07/M08 A2966 RMK A01 T10691083  RH  090%=      5-min Rain = 0
KFL1 211558Z 12007KT M07/M08 A2966 RMK A01 T10701084  RH  090%=      5-min Rain = 0
KFL1 211559Z 13006KT M07/M09 A2966 RMK A01 T10701085  RH  089%=      5-min Rain = 0
KFL1 211600Z 14007KT M07/M08 A2966 RMK A01 T10681083  RH  089%=      5-min Rain = 0
KFL1 211601Z 12005KT M07/M09 A2966 RMK A01 T10701085  RH  089%=      5-min Rain = 0
KFL1 211602Z 11008KT M07/M09 A2966 RMK A01 T10701086  RH  089%=      5-min Rain = 0
KFL1 211603Z 12009KT M07/M09 A2966 RMK A01 T10701085  RH  089%=      5-min Rain = 0
KFL1 211604Z 13007KT M07/M09 A2966 RMK A01 T10701085  RH  089%=      5-min Rain = 0
KFL1 211605Z 12007KT M07/M09 A2966 RMK A01 T10701085  RH  089%=      5-min Rain = 0
KFL1 211606Z 13004KT M07/M09 A2966 RMK A01 T10711086  RH  089%=      5-min Rain = 0
KFL1 211607Z 14004KT M07/M08 A2966 RMK A01 T10691084  RH  090%=      5-min Rain = 0
KFL1 211608Z 13003KT M07/M08 A2966 RMK A01 T10681082  RH  090%=      5-min Rain = 0
KFL1 211609Z 13004KT M07/M08 A2966 RMK A01 T10691083  RH  090%=      5-min Rain = 0
KFL1 211610Z 13003KT M07/M08 A2966 RMK A01 T10671082  RH  090%=      5-min Rain = 0
KFL1 211611Z 13004KT M07/M08 A2966 RMK A01 T10691084  RH  089%=      5-min Rain = 0
KFL1 211612Z 14007KT M07/M08 A2966 RMK A01 T10681083  RH  089%=      5-min Rain = 0
KFL1 211613Z 13006KT M07/M08 A2966 RMK A01 T10681083  RH  089%=      5-min Rain = 0
KFL1 211614Z 12007KT M07/M08 A2966 RMK A01 T10681083  RH  089%=      5-min Rain = 0
KFL1 211615Z 13006KT M07/M09 A2966 RMK A01 T10691085  RH  089%=      5-min Rain = 0
KFL1 211616Z 13005KT M07/M08 A2966 RMK A01 T10671082  RH  089%=      5-min Rain = 0
KFL1 211617Z 13007KT M07/M08 A2966 RMK A01 T10681083  RH  089%=      5-min Rain = 0
KFL1 211618Z 12006KT M07/M08 A2966 RMK A01 T10681083  RH  089%=      5-min Rain = 0
KFL1 211619Z 12005KT M07/M08 A2966 RMK A01 T10681083  RH  090%=      5-min Rain = 0
KFL1 211620Z 12006KT M07/M08 A2966 RMK A01 T10671081  RH  090%=      5-min Rain = 0
KFL1 211621Z 13005KT M07/M08 A2966 RMK A01 T10671081  RH  090%=      5-min Rain = 0
KFL1 211622Z 13006KT M07/M08 A2966 RMK A01 T10661080  RH  090%=      5-min Rain = 0
KFL1 211623Z 13006KT M07/M08 A2966 RMK A01 T10681082  RH  090%=      5-min Rain = 0
KFL1 211624Z 10005KT M07/M08 A2966 RMK A01 T10681082  RH  090%=      5-min Rain = 0
KFL1 211625Z 12006KT M07/M08 A2966 RMK A01 T10671082  RH  090%=      5-min Rain = 0
KFL1 211626Z 12007KT M07/M08 A2966 RMK A01 T10661080  RH  090%=      5-min Rain = 0
KFL1 211627Z 12005KT M07/M08 A2966 RMK A01 T10671082  RH  089%=      5-min Rain = 0
KFL1 211628Z 13004KT M07/M08 A2966 RMK A01 T10671082  RH  089%=      5-min Rain = 0
KFL1 211629Z 10005KT M07/M08 A2966 RMK A01 T10671082  RH  089%=      5-min Rain = 0
KFL1 211630Z 11007KT M07/M08 A2966 RMK A01 T10661081  RH  089%=      5-min Rain = 0
KFL1 211631Z 11006KT M07/M08 A2966 RMK A01 T10661081  RH  089%=      5-min Rain = 0
KFL1 211632Z 12006KT M07/M08 A2966 RMK A01 T10671082  RH  089%=      5-min Rain = 0
KFL1 211633Z 11008KT M07/M08 A2966 RMK A01 T10671082  RH  089%=      5-min Rain = 0
KFL1 211634Z 11008KT M07/M08 A2966 RMK A01 T10661081  RH  089%=      5-min Rain = 0
KFL1 211635Z 12006KT M07/M08 A2966 RMK A01 T10651080  RH  089%=      5-min Rain = 0
KFL1 211636Z 12007KT M07/M08 A2966 RMK A01 T10651081  RH  089%=      5-min Rain = 0
KFL1 211637Z 12007KT M07/M08 A2966 RMK A01 T10661082  RH  089%=      5-min Rain = 0
KFL1 211638Z 11006KT M07/M08 A2966 RMK A01 T10661082  RH  088%=      5-min Rain = 0
KFL1 211639Z 12006KT M07/M08 A2966 RMK A01 T10661082  RH  089%=      5-min Rain = 0
KFL1 211640Z 11005KT M07/M08 A2966 RMK A01 T10661082  RH  089%=      5-min Rain = 0
KFL1 211641Z 11007KT M07/M08 A2966 RMK A01 T10671082  RH  089%=      5-min Rain = 0
KFL1 211642Z 12007KT M07/M08 A2966 RMK A01 T10651080  RH  089%=      5-min Rain = 0
KFL1 211643Z 11006KT M07/M08 A2966 RMK A01 T10661081  RH  089%=      5-min Rain = 0
KFL1 211644Z 12005KT M06/M08 A2966 RMK A01 T10641080  RH  089%=      5-min Rain = 0
KFL1 211645Z 12005KT M07/M08 A2966 RMK A01 T10651081  RH  089%=      5-min Rain = 0
KFL1 211646Z 13006KT M07/M08 A2966 RMK A01 T10651081  RH  089%=      5-min Rain = 0
KFL1 211647Z 12005KT M06/M08 A2966 RMK A01 T10641079  RH  089%=      5-min Rain = 0
KFL1 211648Z 12005KT M07/M08 A2966 RMK A01 T10651080  RH  089%=      5-min Rain = 0
KFL1 211649Z 12007KT M07/M08 A2966 RMK A01 T10661081  RH  089%=      5-min Rain = 0
KFL1 211650Z 12007KT M07/M08 A2966 RMK A01 T10661080  RH  089%=      5-min Rain = 0
KFL1 211651Z 11007KT M07/M08 A2966 RMK A01 T10661080  RH  089%=      5-min Rain = 0
KFL1 211652Z 12005KT M07/M08 A2966 RMK A01 T10651079  RH  090%=      5-min Rain = 0
KFL1 211653Z 13005KT M07/M08 A2966 RMK A01 T10651080  RH  090%=      5-min Rain = 0
KFL1 211654Z 13005KT M07/M08 A2966 RMK A01 T10661080  RH  089%=      5-min Rain = 0
KFL1 211655Z 12005KT M06/M08 A2966 RMK A01 T10641079  RH  089%=      5-min Rain = 0
KFL1 211656Z 12006KT M07/M08 A2966 RMK A01 T10651080  RH  089%=      5-min Rain = 0
KFL1 211657Z 11007KT M07/M08 A2966 RMK A01 T10651081  RH  089%=      5-min Rain = 0
KFL1 211658Z 11006KT M06/M08 A2966 RMK A01 T10641080  RH  089%=      5-min Rain = 0
KFL1 211659Z 12005KT M07/M08 A2966 RMK A01 T10651081  RH  089%=      5-min Rain = 0
KFL1 211700Z 13005KT M06/M08 A2966 RMK A01 T10631079  RH  089%=      5-min Rain = 0
KFL1 211701Z 13006KT M06/M08 A2966 RMK A01 T10641080  RH  089%=      5-min Rain = 0
KFL1 211702Z 13006KT M07/M08 A2966 RMK A01 T10651080  RH  089%=      5-min Rain = 0
KFL1 211703Z 13007KT M06/M08 A2966 RMK A01 T10631078  RH  089%=      5-min Rain = 0
KFL1 211704Z 12006KT M06/M08 A2966 RMK A01 T10631079  RH  088%=      5-min Rain = 0
KFL1 211705Z 13007KT M06/M08 A2966 RMK A01 T10641081  RH  088%=      5-min Rain = 0
KFL1 211706Z 13006KT M06/M08 A2966 RMK A01 T10631079  RH  088%=      5-min Rain = 0
KFL1 211707Z 12007KT M07/M08 A2966 RMK A01 T10651082  RH  088%=      5-min Rain = 0
KFL1 211708Z 12007KT M06/M08 A2966 RMK A01 T10631080  RH  088%=      5-min Rain = 0
KFL1 211709Z 12006KT M06/M08 A2966 RMK A01 T10641079  RH  089%=      5-min Rain = 0
KFL1 211710Z 12006KT M06/M08 A2966 RMK A01 T10631079  RH  089%=      5-min Rain = 0
KFL1 211711Z 13006KT M07/M08 A2966 RMK A01 T10651081  RH  089%=      5-min Rain = 0
KFL1 211712Z 13006KT M06/M08 A2966 RMK A01 T10631079  RH  089%=      5-min Rain = 0
KFL1 211713Z 12006KT M06/M08 A2966 RMK A01 T10621078  RH  089%=      5-min Rain = 0
KFL1 211714Z 13005KT M06/M08 A2966 RMK A01 T10631079  RH  089%=      5-min Rain = 0
KFL1 211715Z 12005KT M06/M08 A2966 RMK A01 T10641079  RH  089%=      5-min Rain = 0
KFL1 211716Z 12006KT M06/M08 A2966 RMK A01 T10621077  RH  089%=      5-min Rain = 0
KFL1 211717Z 11005KT M06/M08 A2966 RMK A01 T10611076  RH  089%=      5-min Rain = 0
KFL1 211718Z 12006KT M06/M08 A2966 RMK A01 T10621077  RH  089%=      5-min Rain = 0
KFL1 211719Z 12006KT M06/M08 A2966 RMK A01 T10611077  RH  089%=      5-min Rain = 0
KFL1 211720Z 12005KT M06/M08 A2966 RMK A01 T10611076  RH  089%=      5-min Rain = 0
KFL1 211721Z 12005KT M06/M08 A2966 RMK A01 T10611077  RH  089%=      5-min Rain = 0
KFL1 211722Z 11005KT M06/M08 A2966 RMK A01 T10611078  RH  088%=      5-min Rain = 0
KFL1 211723Z 12005KT M06/M08 A2966 RMK A01 T10621079  RH  088%=      5-min Rain = 0
KFL1 211724Z 13007KT M06/M08 A2966 RMK A01 T10611077  RH  088%=      5-min Rain = 0
KFL1 211725Z 12008KT M06/M08 A2966 RMK A01 T10591075  RH  088%=      5-min Rain = 0
KFL1 211726Z 13007KT M06/M08 A2966 RMK A01 T10611077  RH  088%=      5-min Rain = 0
KFL1 211727Z 12006KT M06/M08 A2966 RMK A01 T10621078  RH  088%=      5-min Rain = 0
KFL1 211728Z 12007KT M06/M08 A2966 RMK A01 T10611077  RH  088%=      5-min Rain = 0
KFL1 211729Z 12007KT M06/M08 A2966 RMK A01 T10601076  RH  089%=      5-min Rain = 0
KFL1 211730Z 14007KT M06/M07 A2966 RMK A01 T10581074  RH  089%=      5-min Rain = 0
KFL1 211731Z 14008KT M06/M08 A2966 RMK A01 T10601076  RH  088%=      5-min Rain = 0
KFL1 211732Z 14006KT M06/M08 A2966 RMK A01 T10591076  RH  088%=      5-min Rain = 0
KFL1 211733Z 14007KT M06/M08 A2966 RMK A01 T10591076  RH  088%=      5-min Rain = 0
KFL1 211734Z 12006KT M06/M07 A2966 RMK A01 T10581074  RH  088%=      5-min Rain = 0
KFL1 211735Z 14008KT M06/M07 A2966 RMK A01 T10581074  RH  088%=      5-min Rain = 0
KFL1 211736Z 13007KT M06/M08 A2966 RMK A01 T10571075  RH  087%=      5-min Rain = 0
KFL1 211737Z 13007KT M06/M08 A2966 RMK A01 T10591077  RH  087%=      5-min Rain = 0
KFL1 211738Z 14009KT M06/M08 A2966 RMK A01 T10581076  RH  087%=      5-min Rain = 0
KFL1 211739Z 14008KT M06/M08 A2966 RMK A01 T10571075  RH  087%=      5-min Rain = 0
KFL1 211740Z 14009KT M06/M08 A2966 RMK A01 T10571076  RH  086%=      5-min Rain = 0
KFL1 211741Z 14008KT M06/M08 A2966 RMK A01 T10591079  RH  086%=      5-min Rain = 0
KFL1 211742Z 15008KT M06/M08 A2966 RMK A01 T10581077  RH  086%=      5-min Rain = 0
KFL1 211743Z 13007KT M06/M08 A2966 RMK A01 T10591078  RH  086%=      5-min Rain = 0
KFL1 211744Z 14007KT M06/M08 A2966 RMK A01 T10571076  RH  086%=      5-min Rain = 0
KFL1 211745Z 13006KT M06/M08 A2966 RMK A01 T10561076  RH  086%=      5-min Rain = 0
KFL1 211746Z 14008KT M06/M08 A2966 RMK A01 T10551075  RH  086%=      5-min Rain = 0
KFL1 211747Z 13009KT M06/M08 A2966 RMK A01 T10561076  RH  086%=      5-min Rain = 0
KFL1 211748Z 13006KT M06/M08 A2966 RMK A01 T10561077  RH  085%=      5-min Rain = 0
KFL1 211749Z 13007KT M06/M08 A2966 RMK A01 T10561077  RH  085%=      5-min Rain = 0
KFL1 211750Z 13008KT M06/M08 A2966 RMK A01 T10551076  RH  085%=      5-min Rain = 0
KFL1 211751Z 13008KT M06/M08 A2966 RMK A01 T10561077  RH  085%=      5-min Rain = 0
KFL1 211752Z 14006KT M05/M08 A2966 RMK A01 T10541075  RH  085%=      5-min Rain = 0
KFL1 211753Z 13008KT M05/M08 A2966 RMK A01 T10541076  RH  085%=      5-min Rain = 0
KFL1 211754Z 14008KT M05/M08 A2966 RMK A01 T10541075  RH  085%=      5-min Rain = 0
KFL1 211755Z 14006KT M05/M08 A2966 RMK A01 T10541076  RH  085%=      5-min Rain = 0
KFL1 211756Z 13007KT M05/M08 A2967 RMK A01 T10541075  RH  085%=      5-min Rain = 0
KFL1 211757Z 14009KT M05/M07 A2967 RMK A01 T10531073  RH  085%=      5-min Rain = 0
KFL1 211758Z 14009KT M05/M07 A2967 RMK A01 T10531074  RH  085%=      5-min Rain = 0
KFL1 211759Z 14009KT M05/M07 A2967 RMK A01 T10521074  RH  085%=      5-min Rain = 0
KFL1 211800Z 15009KT M05/M08 A2966 RMK A01 T10531075  RH  085%=      5-min Rain = 0
KFL1 211801Z 14007KT M05/M07 A2966 RMK A01 T10531074  RH  085%=      5-min Rain = 0
KFL1 211802Z 15008KT M05/M07 A2966 RMK A01 T10511072  RH  085%=      5-min Rain = 0
KFL1 211803Z 14007KT M05/M07 A2966 RMK A01 T10511073  RH  084%=      5-min Rain = 0
KFL1 211804Z 13008KT M05/M07 A2966 RMK A01 T10511074  RH  084%=      5-min Rain = 0
KFL1 211805Z 14008KT M05/M07 A2966 RMK A01 T10511073  RH  085%=      5-min Rain = 0
KFL1 211806Z 14008KT M05/M07 A2966 RMK A01 T10511073  RH  085%=      5-min Rain = 0
KFL1 211807Z 14007KT M05/M07 A2966 RMK A01 T10501073  RH  084%=      5-min Rain = 0
KFL1 211808Z 14009KT M05/M07 A2966 RMK A01 T10511073  RH  084%=      5-min Rain = 0
KFL1 211809Z 14008KT M05/M07 A2966 RMK A01 T10511074  RH  084%=      5-min Rain = 0
KFL1 211810Z 14009KT M05/M08 A2966 RMK A01 T10521075  RH  084%=      5-min Rain = 0
KFL1 211811Z 13010KT M05/M07 A2966 RMK A01 T10521073  RH  085%=      5-min Rain = 0
KFL1 211812Z 14009KT M05/M07 A2966 RMK A01 T10521074  RH  085%=      5-min Rain = 0
KFL1 211813Z 14010KT M05/M07 A2966 RMK A01 T10521074  RH  085%=      5-min Rain = 0
KFL1 211814Z 13009KT M05/M08 A2967 RMK A01 T10541077  RH  084%=      5-min Rain = 0
KFL1 211815Z 13010KT M05/M08 A2966 RMK A01 T10541077  RH  084%=      5-min Rain = 0
KFL1 211816Z 14011KT M06/M08 A2966 RMK A01 T10551077  RH  084%=      5-min Rain = 0
KFL1 211817Z 14011KT M05/M08 A2966 RMK A01 T10541076  RH  085%=      5-min Rain = 0
KFL1 211818Z 14008KT M06/M08 A2966 RMK A01 T10561077  RH  085%=      5-min Rain = 0
KFL1 211819Z 14007KT M06/M08 A2966 RMK A01 T10551076  RH  085%=      5-min Rain = 0
KFL1 211820Z 15006KT M05/M08 A2966 RMK A01 T10541075  RH  085%=      5-min Rain = 0
KFL1 211821Z 15007KT M05/M07 A2966 RMK A01 T10521073  RH  085%=      5-min Rain = 0
KFL1 211822Z 16008KT M05/M07 A2966 RMK A01 T10511072  RH  085%=      5-min Rain = 0
KFL1 211823Z 16009KT M05/M07 A2966 RMK A01 T10511073  RH  085%=      5-min Rain = 0
KFL1 211824Z 16009KT M05/M07 A2966 RMK A01 T10511073  RH  085%=      5-min Rain = 0
KFL1 211825Z 15007KT M05/M07 A2966 RMK A01 T10521074  RH  084%=      5-min Rain = 0
KFL1 211826Z 15008KT M05/M07 A2966 RMK A01 T10501072  RH  084%=      5-min Rain = 0
KFL1 211827Z 14008KT M05/M07 A2966 RMK A01 T10501072  RH  084%=      5-min Rain = 0
KFL1 211828Z 15006KT M05/M07 A2966 RMK A01 T10491071  RH  085%=      5-min Rain = 0
KFL1 211829Z 15006KT M05/M07 A2966 RMK A01 T10501071  RH  085%=      5-min Rain = 0
KFL1 211830Z 14007KT M05/M07 A2966 RMK A01 T10491070  RH  085%=      5-min Rain = 0
KFL1 211831Z 13007KT M05/M07 A2966 RMK A01 T10491072  RH  084%=      5-min Rain = 0
KFL1 211832Z 14008KT M05/M07 A2966 RMK A01 T10501073  RH  084%=      5-min Rain = 0
KFL1 211833Z 14007KT M05/M07 A2966 RMK A01 T10501073  RH  084%=      5-min Rain = 0
KFL1 211834Z 14007KT M05/M07 A2966 RMK A01 T10491073  RH  084%=      5-min Rain = 0
KFL1 211835Z 15008KT M05/M07 A2966 RMK A01 T10491073  RH  084%=      5-min Rain = 0
KFL1 211836Z 14005KT M05/M07 A2966 RMK A01 T10491072  RH  083%=      5-min Rain = 0
KFL1 211837Z 14006KT M05/M07 A2966 RMK A01 T10461070  RH  084%=      5-min Rain = 0
KFL1 211838Z 15007KT M05/M07 A2966 RMK A01 T10461069  RH  084%=      5-min Rain = 0
KFL1 211839Z 14004KT M05/M07 A2966 RMK A01 T10451069  RH  083%=      5-min Rain = 0
KFL1 211840Z 14005KT M05/M07 A2966 RMK A01 T10451069  RH  083%=      5-min Rain = 0
KFL1 211841Z 13005KT M05/M07 A2966 RMK A01 T10451070  RH  083%=      5-min Rain = 0
KFL1 211842Z 12005KT M04/M07 A2966 RMK A01 T10441068  RH  084%=      5-min Rain = 0
KFL1 211843Z 12006KT M04/M07 A2966 RMK A01 T10441068  RH  084%=      5-min Rain = 0
KFL1 211844Z 13007KT M04/M07 A2966 RMK A01 T10441069  RH  083%=      5-min Rain = 0
KFL1 211845Z 13007KT M04/M07 A2966 RMK A01 T10441069  RH  083%=      5-min Rain = 0
KFL1 211846Z 13007KT M04/M07 A2966 RMK A01 T10431067  RH  083%=      5-min Rain = 0
KFL1 211847Z 14007KT M04/M07 A2966 RMK A01 T10441069  RH  083%=      5-min Rain = 0
KFL1 211848Z 14005KT M04/M07 A2966 RMK A01 T10441069  RH  083%=      5-min Rain = 0
KFL1 211849Z 15007KT M04/M07 A2966 RMK A01 T10431066  RH  084%=      5-min Rain = 0
KFL1 211850Z 14008KT M04/M07 A2966 RMK A01 T10431066  RH  084%=      5-min Rain = 0
KFL1 211851Z 16008KT M04/M07 A2966 RMK A01 T10431068  RH  082%=      5-min Rain = 0
KFL1 211852Z 16008KT M04/M07 A2966 RMK A01 T10431072  RH  081%=      5-min Rain = 0
KFL1 211853Z 14007KT M04/M07 A2966 RMK A01 T10431072  RH  081%=      5-min Rain = 0
KFL1 211854Z 13008KT M04/M07 A2966 RMK A01 T10431071  RH  081%=      5-min Rain = 0
KFL1 211855Z 13007KT M04/M07 A2966 RMK A01 T10431071  RH  081%=      5-min Rain = 0
KFL1 211856Z 14006KT M04/M07 A2966 RMK A01 T10441069  RH  083%=      5-min Rain = 0
KFL1 211857Z 14006KT M04/M07 A2966 RMK A01 T10441068  RH  083%=      5-min Rain = 0
KFL1 211858Z 13007KT M04/M07 A2966 RMK A01 T10431068  RH  083%=      5-min Rain = 0
KFL1 211859Z 13005KT M04/M07 A2966 RMK A01 T10441068  RH  083%=      5-min Rain = 0
KFL1 211900Z 12005KT M04/M07 A2966 RMK A01 T10441068  RH  084%=      5-min Rain = 0
KFL1 211901Z 14008KT M04/M07 A2966 RMK A01 T10441070  RH  083%=      5-min Rain = 0
KFL1 211902Z 14010KT M04/M07 A2966 RMK A01 T10441070  RH  082%=      5-min Rain = 0
KFL1 211903Z 12009KT M05/M07 A2966 RMK A01 T10451071  RH  082%=      5-min Rain = 0
KFL1 211904Z 12006KT M05/M07 A2966 RMK A01 T10451071  RH  082%=      5-min Rain = 0
KFL1 211905Z 14007KT M04/M07 A2966 RMK A01 T10441068  RH  083%=      5-min Rain = 0
KFL1 211906Z 13006KT M04/M07 A2966 RMK A01 T10431067  RH  084%=      5-min Rain = 0
KFL1 211907Z 13008KT M04/M07 A2966 RMK A01 T10431068  RH  083%=      5-min Rain = 0
KFL1 211908Z 14008KT M04/M07 A2966 RMK A01 T10421068  RH  082%=      5-min Rain = 0
KFL1 211909Z 13005KT M04/M07 A2966 RMK A01 T10431068  RH  082%=      5-min Rain = 0
KFL1 211910Z 14005KT M04/M07 A2966 RMK A01 T10421067  RH  083%=      5-min Rain = 0
KFL1 211911Z 14008KT M04/M07 A2966 RMK A01 T10431068  RH  083%=      5-min Rain = 0
KFL1 211912Z 13005KT M04/M07 A2966 RMK A01 T10421068  RH  082%=      5-min Rain = 0
KFL1 211913Z 14006KT M04/M07 A2966 RMK A01 T10421068  RH  082%=      5-min Rain = 0
KFL1 211914Z 13006KT M04/M07 A2966 RMK A01 T10411067  RH  082%=      5-min Rain = 0
KFL1 211915Z 13005KT M04/M07 A2965 RMK A01 T10411067  RH  082%=      5-min Rain = 0
KFL1 211916Z 15006KT M04/M07 A2965 RMK A01 T10411067  RH  082%=      5-min Rain = 0
KFL1 211917Z 13008KT M04/M07 A2965 RMK A01 T10411068  RH  082%=      5-min Rain = 0
KFL1 211918Z 14009KT M04/M07 A2965 RMK A01 T10411068  RH  082%=      5-min Rain = 0
KFL1 211919Z 13009KT M04/M07 A2965 RMK A01 T10421068  RH  082%=      5-min Rain = 0
KFL1 211920Z 12009KT M04/M07 A2965 RMK A01 T10411067  RH  082%=      5-min Rain = 0
KFL1 211921Z 12012KT M04/M07 A2965 RMK A01 T10411068  RH  082%=      5-min Rain = 0
KFL1 211922Z 13011KT M04/M07 A2965 RMK A01 T10411068  RH  082%=      5-min Rain = 0
KFL1 211923Z 12008KT M04/M07 A2965 RMK A01 T10411068  RH  081%=      5-min Rain = 0
KFL1 211924Z 12009KT M04/M07 A2965 RMK A01 T10421071  RH  080%=      5-min Rain = 0
KFL1 211925Z 12008G13KT M04/M07 A2965 RMK A01 T10411070  RH  081%=      5-min Rain = 0
KFL1 211926Z 12008KT M04/M07 A2965 RMK A01 T10421071  RH  080%=      5-min Rain = 0
KFL1 211927Z 12006KT M04/M07 A2965 RMK A01 T10421072  RH  080%=      5-min Rain = 0
KFL1 211928Z 13008KT M04/M07 A2965 RMK A01 T10421071  RH  080%=      5-min Rain = 0
KFL1 211929Z 11008KT M04/M07 A2965 RMK A01 T10421069  RH  081%=      5-min Rain = 0
KFL1 211930Z 13006KT M04/M07 A2965 RMK A01 T10421067  RH  082%=      5-min Rain = 0
KFL1 211931Z 14004KT M04/M07 A2965 RMK A01 T10411067  RH  082%=      5-min Rain = 0
KFL1 211932Z 13004KT M04/M07 A2965 RMK A01 T10381065  RH  082%=      5-min Rain = 0
KFL1 211933Z 12005KT M04/M06 A2965 RMK A01 T10371064  RH  081%=      5-min Rain = 0
KFL1 211934Z 11007KT M04/M06 A2965 RMK A01 T10371064  RH  082%=      5-min Rain = 0
KFL1 211935Z 11006KT M04/M07 A2965 RMK A01 T10381065  RH  081%=      5-min Rain = 0
KFL1 211936Z 11003KT M04/M07 A2965 RMK A01 T10371066  RH  081%=      5-min Rain = 0
KFL1 211937Z 10005KT M04/M07 A2964 RMK A01 T10361065  RH  080%=      5-min Rain = 0
KFL1 211938Z 12004KT M04/M07 A2964 RMK A01 T10371068  RH  079%=      5-min Rain = 0
KFL1 211939Z 11006KT M04/M07 A2964 RMK A01 T10361067  RH  079%=      5-min Rain = 0
KFL1 211940Z 12008KT M04/M07 A2964 RMK A01 T10351065  RH  080%=      5-min Rain = 0
KFL1 211941Z 10009KT M04/M07 A2964 RMK A01 T10361066  RH  080%=      5-min Rain = 0
KFL1 211942Z 10009KT M04/M07 A2964 RMK A01 T10361065  RH  080%=      5-min Rain = 0
KFL1 211943Z 11010KT M04/M07 A2964 RMK A01 T10361065  RH  080%=      5-min Rain = 0
KFL1 211944Z 11010KT M04/M07 A2964 RMK A01 T10371068  RH  079%=      5-min Rain = 0.01
KFL1 211945Z 11009KT M04/M07 A2964 RMK A01 T10371068  RH  079%=      5-min Rain = 0.04
KFL1 211946Z 10009KT M04/M07 A2964 RMK A01 T10381068  RH  080%=      5-min Rain = 0
KFL1 211947Z 10007KT M04/M06 A2964 RMK A01 T10371064  RH  082%=      5-min Rain = 0
KFL1 211948Z 11009KT M04/M06 A2964 RMK A01 T10371063  RH  082%=      5-min Rain = 0
KFL1 211949Z 10009KT M04/M06 A2964 RMK A01 T10361064  RH  081%=      5-min Rain = 0
KFL1 211950Z 10007KT M04/M07 A2964 RMK A01 T10381066  RH  081%=      5-min Rain = 0
KFL1 211951Z 10007KT M04/M06 A2964 RMK A01 T10381063  RH  082%=      5-min Rain = 0
KFL1 211952Z 09009KT M04/M06 A2964 RMK A01 T10381063  RH  083%=      5-min Rain = 0
KFL1 211953Z 10011KT M04/M06 A2964 RMK A01 T10381063  RH  083%=      5-min Rain = 0
KFL1 211954Z 11011KT M04/M06 A2964 RMK A01 T10371063  RH  082%=      5-min Rain = 0
KFL1 211955Z 12010KT M04/M07 A2964 RMK A01 T10391065  RH  082%=      5-min Rain = 0
KFL1 211956Z 12009KT M04/M07 A2964 RMK A01 T10401065  RH  083%=      5-min Rain = 0
KFL1 211957Z 11008KT M04/M07 A2964 RMK A01 T10401066  RH  083%=      5-min Rain = 0
KFL1 211958Z 14008KT M04/M07 A2964 RMK A01 T10401066  RH  082%=      5-min Rain = 0
KFL1 211959Z 13009KT M04/M07 A2964 RMK A01 T10411067  RH  082%=      5-min Rain = 0
KFL1 212000Z 13006KT M04/M07 A2964 RMK A01 T10401067  RH  082%=      5-min Rain = 0.01
KFL1 212001Z 14006KT M04/M07 A2964 RMK A01 T10401065  RH  083%=      5-min Rain = 0
KFL1 212002Z 13006KT M04/M07 A2964 RMK A01 T10411065  RH  083%=      5-min Rain = 0
KFL1 212003Z 12008KT M04/M07 A2964 RMK A01 T10411065  RH  084%=      5-min Rain = 0
KFL1 212004Z 13008KT M04/M06 A2964 RMK A01 T10411064  RH  084%=      5-min Rain = 0
KFL1 212005Z 11006KT M04/M06 A2964 RMK A01 T10411064  RH  084%=      5-min Rain = 0
KFL1 212006Z 12005KT M04/M06 A2964 RMK A01 T10411063  RH  084%=      5-min Rain = 0
KFL1 212007Z 11005KT M04/M06 A2964 RMK A01 T10411064  RH  084%=      5-min Rain = 0
KFL1 212008Z 12006KT M04/M07 A2964 RMK A01 T10421066  RH  083%=      5-min Rain = 0
KFL1 212009Z 13005KT M04/M06 A2964 RMK A01 T10411063  RH  085%=      5-min Rain = 0
KFL1 212010Z 12006KT M04/M06 A2964 RMK A01 T10421063  RH  085%=      5-min Rain = 0
KFL1 212011Z 13006KT M04/M07 A2964 RMK A01 T10421065  RH  085%=      5-min Rain = 0
KFL1 212012Z 13006KT M04/M07 A2964 RMK A01 T10441067  RH  084%=      5-min Rain = 0
KFL1 212013Z 14008KT M04/M06 A2964 RMK A01 T10431064  RH  086%=      5-min Rain = 0
KFL1 212014Z 14009KT M04/M06 A2964 RMK A01 T10441064  RH  086%=      5-min Rain = 0
KFL1 212015Z 12008KT M04/M06 A2964 RMK A01 T10441064  RH  086%=      5-min Rain = 0
KFL1 212016Z 12007KT M04/M06 A2964 RMK A01 T10441064  RH  086%=      5-min Rain = 0.01
KFL1 212017Z 11008KT M04/M06 A2964 RMK A01 T10421061  RH  087%=      5-min Rain = 0
KFL1 212018Z 11009KT M04/M06 A2964 RMK A01 T10421061  RH  087%=      5-min Rain = 0
KFL1 212019Z 12006KT M04/M06 A2964 RMK A01 T10431063  RH  086%=      5-min Rain = 0
KFL1 212020Z 11005KT M04/M06 A2964 RMK A01 T10431064  RH  085%=      5-min Rain = 0
KFL1 212021Z 11008KT M04/M06 A2964 RMK A01 T10441064  RH  086%=      5-min Rain = 0
KFL1 212022Z 10005KT M04/M06 A2964 RMK A01 T10431064  RH  086%=      5-min Rain = 0
KFL1 212023Z 12005KT M04/M06 A2964 RMK A01 T10421063  RH  085%=      5-min Rain = 0
KFL1 212024Z 12006KT M04/M06 A2964 RMK A01 T10411063  RH  085%=      5-min Rain = 0
KFL1 212025Z 12008G13KT M04/M06 A2964 RMK A01 T10401062  RH  085%=      5-min Rain = 0
KFL1 212026Z 10008KT M04/M07 A2963 RMK A01 T10401065  RH  083%=      5-min Rain = 0
KFL1 212027Z 09005KT M04/M07 A2963 RMK A01 T10391065  RH  083%=      5-min Rain = 0
KFL1 212028Z 10005KT M04/M07 A2963 RMK A01 T10411065  RH  083%=      5-min Rain = 0.01
KFL1 212029Z 10006KT M04/M06 A2963 RMK A01 T10401063  RH  084%=      5-min Rain = 0
KFL1 212030Z 10004KT M04/M06 A2963 RMK A01 T10381061  RH  084%=      5-min Rain = 0
KFL1 212031Z 11004KT M04/M06 A2963 RMK A01 T10381062  RH  083%=      5-min Rain = 0
KFL1 212032Z 10005KT M04/M06 A2963 RMK A01 T10361062  RH  082%=      5-min Rain = 0
KFL1 212033Z 10005KT M03/M06 A2963 RMK A01 T10341061  RH  082%=      5-min Rain = 0
KFL1 212034Z 11004KT M04/M06 A2963 RMK A01 T10351060  RH  083%=      5-min Rain = 0
KFL1 212035Z 13004KT M04/M06 A2963 RMK A01 T10361063  RH  082%=      5-min Rain = 0
KFL1 212036Z 14004KT M04/M07 A2963 RMK A01 T10371066  RH  080%=      5-min Rain = 0
KFL1 212037Z 13005KT M04/M07 A2963 RMK A01 T10371065  RH  081%=      5-min Rain = 0
KFL1 212038Z 14006KT M04/M06 A2963 RMK A01 T10371064  RH  081%=      5-min Rain = 0
KFL1 212039Z 13006KT M04/M07 A2963 RMK A01 T10371065  RH  081%=      5-min Rain = 0
KFL1 212040Z 12006KT M04/M07 A2963 RMK A01 T10381066  RH  081%=      5-min Rain = 0
KFL1 212041Z 12007KT M04/M07 A2963 RMK A01 T10411068  RH  081%=      5-min Rain = 0
KFL1 212042Z 12008KT M04/M07 A2963 RMK A01 T10421069  RH  082%=      5-min Rain = 0
KFL1 212043Z 12010KT M05/M07 A2963 RMK A01 T10451071  RH  082%=      5-min Rain = 0
KFL1 212044Z 12008KT M05/M07 A2963 RMK A01 T10451071  RH  082%=      5-min Rain = 0
KFL1 212045Z 12007KT M05/M07 A2963 RMK A01 T10451069  RH  083%=      5-min Rain = 0
KFL1 212046Z 10008KT M05/M07 A2963 RMK A01 T10461068  RH  084%=      5-min Rain = 0
KFL1 212047Z 11009KT M05/M07 A2963 RMK A01 T10451066  RH  085%=      5-min Rain = 0
KFL1 212048Z 11009KT M04/M06 A2963 RMK A01 T10431064  RH  086%=      5-min Rain = 0.01
KFL1 212049Z 11009KT M04/M06 A2963 RMK A01 T10421063  RH  085%=      5-min Rain = 0
KFL1 212050Z 10009KT M04/M06 A2963 RMK A01 T10411063  RH  085%=      5-min Rain = 0
KFL1 212051Z 09008KT M04/M06 A2963 RMK A01 T10421063  RH  085%=      5-min Rain = 0
KFL1 212052Z 09007KT M04/M06 A2963 RMK A01 T10421063  RH  086%=      5-min Rain = 0
KFL1 212053Z 10007KT M04/M06 A2963 RMK A01 T10431062  RH  086%=      5-min Rain = 0
KFL1 212054Z 10005KT M04/M06 A2963 RMK A01 T10411061  RH  086%=      5-min Rain = 0
KFL1 212055Z 09006KT M04/M06 A2963 RMK A01 T10411061  RH  086%=      5-min Rain = 0
KFL1 212056Z 10006KT M04/M06 A2963 RMK A01 T10391059  RH  086%=      5-min Rain = 0
KFL1 212057Z 11008KT M04/M06 A2963 RMK A01 T10391059  RH  086%=      5-min Rain = 0
KFL1 212058Z 11008KT M04/M06 A2963 RMK A01 T10411063  RH  084%=      5-min Rain = 0
KFL1 212059Z 11007KT M04/M07 A2963 RMK A01 T10421065  RH  084%=      5-min Rain = 0
KFL1 212100Z 10007KT M04/M06 A2963 RMK A01 T10421062  RH  086%=      5-min Rain = 0.01
KFL1 212101Z 09010KT M04/M06 A2963 RMK A01 T10411061  RH  087%=      5-min Rain = 0
KFL1 212102Z 10009KT M04/M06 A2963 RMK A01 T10411060  RH  087%=      5-min Rain = 0
KFL1 212103Z 10009KT M04/M06 A2963 RMK A01 T10401060  RH  086%=      5-min Rain = 0
KFL1 212104Z 11008KT M04/M06 A2963 RMK A01 T10401061  RH  086%=      5-min Rain = 0
KFL1 212105Z 10007KT M04/M06 A2963 RMK A01 T10431063  RH  086%=      5-min Rain = 0
KFL1 212106Z 10009KT M04/M06 A2963 RMK A01 T10441063  RH  086%=      5-min Rain = 0
KFL1 212107Z 10009KT M04/M06 A2963 RMK A01 T10441062  RH  087%=      5-min Rain = 0
KFL1 212108Z 09008KT M04/M06 A2963 RMK A01 T10431061  RH  087%=      5-min Rain = 0
KFL1 212109Z 10010KT M04/M06 A2963 RMK A01 T10431061  RH  087%=      5-min Rain = 0
KFL1 212110Z 08011KT M04/M06 A2963 RMK A01 T10441062  RH  087%=      5-min Rain = 0
KFL1 212111Z 09009KT M04/M06 A2963 RMK A01 T10421060  RH  087%=      5-min Rain = 0
KFL1 212112Z 10008KT M04/M06 A2963 RMK A01 T10421060  RH  087%=      5-min Rain = 0.01
KFL1 212113Z 10009KT M04/M06 A2963 RMK A01 T10431061  RH  087%=      5-min Rain = 0
KFL1 212114Z 08011G16KT M04/M06 A2963 RMK A01 T10431061  RH  087%=      5-min Rain = 0
KFL1 212115Z 09011KT M04/M06 A2963 RMK A01 T10411060  RH  087%=      5-min Rain = 0
KFL1 212116Z 12011KT M04/M06 A2963 RMK A01 T10421062  RH  086%=      5-min Rain = 0
KFL1 212117Z 10008KT M04/M06 A2963 RMK A01 T10411061  RH  086%=      5-min Rain = 0
KFL1 212118Z 11010KT M04/M06 A2963 RMK A01 T10421062  RH  086%=      5-min Rain = 0
KFL1 212119Z 10009KT M04/M06 A2963 RMK A01 T10431062  RH  086%=      5-min Rain = 0
KFL1 212120Z 10010KT M04/M06 A2963 RMK A01 T10441063  RH  086%=      5-min Rain = 0
KFL1 212121Z 10008KT M04/M06 A2963 RMK A01 T10431062  RH  087%=      5-min Rain = 0
KFL1 212122Z 10009KT M04/M06 A2963 RMK A01 T10431061  RH  087%=      5-min Rain = 0
KFL1 212123Z 11007KT M04/M06 A2963 RMK A01 T10441062  RH  087%=      5-min Rain = 0
KFL1 212124Z 11008KT M04/M06 A2963 RMK A01 T10421059  RH  087%=      5-min Rain = 0
KFL1 212125Z 10007KT M04/M06 A2963 RMK A01 T10431060  RH  087%=      5-min Rain = 0
KFL1 212126Z 10010KT M04/M06 A2963 RMK A01 T10441061  RH  088%=      5-min Rain = 0
KFL1 212127Z 10009KT M04/M06 A2963 RMK A01 T10431060  RH  088%=      5-min Rain = 0.01
KFL1 212128Z 09009KT M04/M06 A2963 RMK A01 T10441061  RH  088%=      5-min Rain = 0
KFL1 212129Z 11012G17KT M04/M06 A2963 RMK A01 T10421060  RH  087%=      5-min Rain = 0
KFL1 212130Z 11007KT M04/M06 A2963 RMK A01 T10441064  RH  086%=      5-min Rain = 0
KFL1 212131Z 11008KT M04/M07 A2963 RMK A01 T10441065  RH  086%=      5-min Rain = 0
KFL1 212132Z 10007KT M05/M06 A2963 RMK A01 T10451064  RH  087%=      5-min Rain = 0
KFL1 212133Z 11009KT M04/M06 A2963 RMK A01 T10441061  RH  088%=      5-min Rain = 0
KFL1 212134Z 12010KT M04/M06 A2963 RMK A01 T10431061  RH  088%=      5-min Rain = 0
KFL1 212135Z 11008KT M04/M06 A2963 RMK A01 T10441063  RH  087%=      5-min Rain = 0
KFL1 212136Z 10009KT M05/M06 A2963 RMK A01 T10451063  RH  087%=      5-min Rain = 0
KFL1 212137Z 11011KT M05/M06 A2963 RMK A01 T10451064  RH  087%=      5-min Rain = 0
KFL1 212138Z 11012KT M05/M06 A2963 RMK A01 T10451064  RH  086%=      5-min Rain = 0
KFL1 212139Z 11010KT M05/M07 A2963 RMK A01 T10461066  RH  086%=      5-min Rain = 0
KFL1 212140Z 10011KT M05/M07 A2963 RMK A01 T10471066  RH  086%=      5-min Rain = 0
KFL1 212141Z 10009KT M05/M06 A2963 RMK A01 T10451064  RH  087%=      5-min Rain = 0
KFL1 212142Z 10009KT M05/M06 A2963 RMK A01 T10451063  RH  087%=      5-min Rain = 0
KFL1 212143Z 11009G14KT M05/M06 A2963 RMK A01 T10461064  RH  088%=      5-min Rain = 0
KFL1 212144Z 12008KT M05/M07 A2963 RMK A01 T10471065  RH  087%=      5-min Rain = 0
KFL1 212145Z 10009KT M05/M06 A2963 RMK A01 T10461064  RH  087%=      5-min Rain = 0
KFL1 212146Z 11011KT M05/M06 A2963 RMK A01 T10461063  RH  088%=      5-min Rain = 0
KFL1 212147Z 12008G13KT M05/M06 A2963 RMK A01 T10451062  RH  088%=      5-min Rain = 0
KFL1 212148Z 11010KT M05/M06 A2963 RMK A01 T10461064  RH  087%=      5-min Rain = 0
KFL1 212149Z 12010KT M05/M07 A2963 RMK A01 T10471066  RH  087%=      5-min Rain = 0
KFL1 212150Z 12008KT M05/M07 A2963 RMK A01 T10471066  RH  087%=      5-min Rain = 0.01
KFL1 212151Z 12009KT M05/M07 A2963 RMK A01 T10481067  RH  087%=      5-min Rain = 0
KFL1 212152Z 12009KT M05/M07 A2963 RMK A01 T10481066  RH  087%=      5-min Rain = 0
KFL1 212153Z 13009KT M05/M07 A2963 RMK A01 T10481065  RH  088%=      5-min Rain = 0
KFL1 212154Z 13008KT M05/M06 A2963 RMK A01 T10461064  RH  088%=      5-min Rain = 0
KFL1 212155Z 12008KT M05/M07 A2963 RMK A01 T10491066  RH  088%=      5-min Rain = 0
KFL1 212156Z 11009KT M05/M07 A2963 RMK A01 T10491067  RH  088%=      5-min Rain = 0
KFL1 212157Z 12009KT M05/M07 A2963 RMK A01 T10491066  RH  088%=      5-min Rain = 0
KFL1 212158Z 12007KT M05/M06 A2963 RMK A01 T10471064  RH  088%=      5-min Rain = 0
KFL1 212159Z 12007KT M05/M06 A2963 RMK A01 T10471064  RH  088%=      5-min Rain = 0
KFL1 212200Z 11007KT M05/M06 A2963 RMK A01 T10471064  RH  088%=      5-min Rain = 0
KFL1 212201Z 11009KT M05/M06 A2963 RMK A01 T10471064  RH  088%=      5-min Rain = 0
KFL1 212202Z 11006KT M05/M06 A2963 RMK A01 T10461062  RH  088%=      5-min Rain = 0
KFL1 212203Z 11008KT M05/M06 A2963 RMK A01 T10461062  RH  089%=      5-min Rain = 0
KFL1 212204Z 12009KT M05/M06 A2963 RMK A01 T10461061  RH  089%=      5-min Rain = 0
KFL1 212205Z 11008KT M05/M06 A2963 RMK A01 T10461061  RH  089%=      5-min Rain = 0
KFL1 212206Z 12008KT M05/M06 A2963 RMK A01 T10451062  RH  088%=      5-min Rain = 0
KFL1 212207Z 12008KT M04/M06 A2963 RMK A01 T10441061  RH  088%=      5-min Rain = 0
KFL1 212208Z 12007KT M05/M06 A2963 RMK A01 T10451061  RH  088%=      5-min Rain = 0
KFL1 212209Z 11008KT M05/M06 A2963 RMK A01 T10471063  RH  088%=      5-min Rain = 0
KFL1 212210Z 10006KT M05/M06 A2963 RMK A01 T10471063  RH  089%=      5-min Rain = 0
KFL1 212211Z 09008KT M05/M06 A2963 RMK A01 T10451060  RH  090%=      5-min Rain = 0
KFL1 212212Z 08007KT M04/M06 A2963 RMK A01 T10441058  RH  090%=      5-min Rain = 0
KFL1 212213Z 08009KT M04/M06 A2963 RMK A01 T10431057  RH  090%=      5-min Rain = 0
KFL1 212214Z 09009KT M04/M06 A2963 RMK A01 T10421057  RH  090%=      5-min Rain = 0
KFL1 212215Z 09008KT M04/M06 A2962 RMK A01 T10411056  RH  089%=      5-min Rain = 0
KFL1 212216Z 10010KT M04/M06 A2962 RMK A01 T10401056  RH  089%=      5-min Rain = 0
KFL1 212217Z 10008KT M04/M06 A2962 RMK A01 T10401056  RH  089%=      5-min Rain = 0
KFL1 212218Z 09007KT M04/M06 A2962 RMK A01 T10411057  RH  089%=      5-min Rain = 0
KFL1 212219Z 09008KT M04/M06 A2963 RMK A01 T10411057  RH  089%=      5-min Rain = 0
KFL1 212220Z 09008KT M04/M06 A2963 RMK A01 T10421058  RH  089%=      5-min Rain = 0
KFL1 212221Z 08008KT M04/M06 A2963 RMK A01 T10431059  RH  089%=      5-min Rain = 0
KFL1 212222Z 09008KT M04/M06 A2963 RMK A01 T10431059  RH  088%=      5-min Rain = 0
KFL1 212223Z 09008KT M04/M06 A2963 RMK A01 T10431059  RH  089%=      5-min Rain = 0
KFL1 212224Z 08007KT M04/M06 A2963 RMK A01 T10421058  RH  088%=      5-min Rain = 0
KFL1 212225Z 08007KT M04/M06 A2963 RMK A01 T10401055  RH  089%=      5-min Rain = 0
KFL1 212226Z 08007KT M04/M06 A2963 RMK A01 T10401056  RH  089%=      5-min Rain = 0
KFL1 212227Z 10006KT M04/M06 A2963 RMK A01 T10411056  RH  089%=      5-min Rain = 0
KFL1 212228Z 09008KT M04/M06 A2963 RMK A01 T10411057  RH  089%=      5-min Rain = 0
KFL1 212229Z 09008KT M04/M06 A2963 RMK A01 T10411056  RH  089%=      5-min Rain = 0
KFL1 212230Z 08009KT M04/M06 A2963 RMK A01 T10421057  RH  089%=      5-min Rain = 0
KFL1 212231Z 08010KT M04/M06 A2963 RMK A01 T10431058  RH  089%=      5-min Rain = 0
KFL1 212232Z 09009KT M04/M06 A2963 RMK A01 T10421057  RH  089%=      5-min Rain = 0
KFL1 212233Z 09012KT M04/M06 A2963 RMK A01 T10421057  RH  090%=      5-min Rain = 0.01
KFL1 212234Z 09010KT M04/M06 A2963 RMK A01 T10421057  RH  090%=      5-min Rain = 0
KFL1 212235Z 09011KT M04/M06 A2963 RMK A01 T10421056  RH  090%=      5-min Rain = 0
KFL1 212236Z 09010G15KT M04/M06 A2963 RMK A01 T10431058  RH  090%=      5-min Rain = 0
KFL1 212237Z 09010KT M04/M06 A2963 RMK A01 T10431058  RH  090%=      5-min Rain = 0
KFL1 212238Z 09010KT M04/M06 A2963 RMK A01 T10441058  RH  090%=      5-min Rain = 0
KFL1 212239Z 08012KT M04/M06 A2963 RMK A01 T10441058  RH  090%=      5-min Rain = 0
KFL1 212240Z 09012KT M04/M06 A2963 RMK A01 T10431057  RH  090%=      5-min Rain = 0
KFL1 212241Z 09012KT M04/M06 A2963 RMK A01 T10421056  RH  090%=      5-min Rain = 0
KFL1 212242Z 10009KT M04/M06 A2963 RMK A01 T10441057  RH  090%=      5-min Rain = 0
KFL1 212243Z 09010KT M05/M06 A2963 RMK A01 T10461060  RH  090%=      5-min Rain = 0
KFL1 212244Z 09010KT M05/M06 A2963 RMK A01 T10451059  RH  090%=      5-min Rain = 0
KFL1 212245Z 08010KT M05/M06 A2963 RMK A01 T10461059  RH  090%=      5-min Rain = 0
KFL1 212246Z 10010KT M05/M06 A2964 RMK A01 T10461059  RH  091%=      5-min Rain = 0
KFL1 212247Z 09010KT M05/M06 A2964 RMK A01 T10451058  RH  091%=      5-min Rain = 0
KFL1 212248Z 09012KT M05/M06 A2964 RMK A01 T10471060  RH  091%=      5-min Rain = 0
KFL1 212249Z 10013KT M05/M06 A2963 RMK A01 T10461059  RH  091%=      5-min Rain = 0
KFL1 212250Z 09010KT M05/M06 A2964 RMK A01 T10471060  RH  091%=      5-min Rain = 0
KFL1 212251Z 10010KT M05/M06 A2963 RMK A01 T10471060  RH  091%=      5-min Rain = 0
KFL1 212252Z 10009KT M05/M06 A2963 RMK A01 T10471060  RH  091%=      5-min Rain = 0
KFL1 212253Z 09007KT M05/M06 A2963 RMK A01 T10471060  RH  091%=      5-min Rain = 0
KFL1 212254Z 09010KT M05/M06 A2963 RMK A01 T10471060  RH  091%=      5-min Rain = 0
KFL1 212255Z 08010KT M05/M06 A2963 RMK A01 T10461059  RH  091%=      5-min Rain = 0
KFL1 212256Z 09010KT M05/M06 A2963 RMK A01 T10471059  RH  091%=      5-min Rain = 0
KFL1 212257Z 08011KT M05/M06 A2964 RMK A01 T10471059  RH  091%=      5-min Rain = 0
KFL1 212258Z 09008KT M05/M06 A2964 RMK A01 T10471059  RH  091%=      5-min Rain = 0
KFL1 212259Z 10009KT M05/M06 A2964 RMK A01 T10461058  RH  091%=      5-min Rain = 0
KFL1 212300Z 09007KT M05/M06 A2964 RMK A01 T10451058  RH  091%=      5-min Rain = 0
KFL1 212301Z 09006KT M05/M06 A2963 RMK A01 T10471059  RH  091%=      5-min Rain = 0
KFL1 212302Z 09008KT M05/M06 A2963 RMK A01 T10461058  RH  091%=      5-min Rain = 0
KFL1 212303Z 09011KT M05/M06 A2963 RMK A01 T10451057  RH  092%=      5-min Rain = 0
KFL1 212304Z 08011KT M05/M06 A2963 RMK A01 T10461057  RH  091%=      5-min Rain = 0
KFL1 212305Z 07012KT M05/M06 A2963 RMK A01 T10461059  RH  091%=      5-min Rain = 0
KFL1 212306Z 09009KT M05/M06 A2963 RMK A01 T10461059  RH  091%=      5-min Rain = 0
KFL1 212307Z 09009KT M05/M06 A2963 RMK A01 T10471059  RH  091%=      5-min Rain = 0
KFL1 212308Z 08008KT M05/M06 A2963 RMK A01 T10471059  RH  091%=      5-min Rain = 0
KFL1 212309Z 09009KT M05/M06 A2963 RMK A01 T10471059  RH  091%=      5-min Rain = 0
KFL1 212310Z 09010KT M05/M06 A2963 RMK A01 T10461058  RH  091%=      5-min Rain = 0
KFL1 212311Z 08011KT M05/M06 A2963 RMK A01 T10471060  RH  091%=      5-min Rain = 0
KFL1 212312Z 08010KT M05/M06 A2963 RMK A01 T10471060  RH  090%=      5-min Rain = 0
KFL1 212313Z 08008KT M05/M06 A2963 RMK A01 T10471060  RH  091%=      5-min Rain = 0
KFL1 212314Z 08009KT M05/M06 A2963 RMK A01 T10471059  RH  091%=      5-min Rain = 0
KFL1 212315Z 09006KT M05/M06 A2963 RMK A01 T10471060  RH  091%=      5-min Rain = 0
KFL1 212316Z 09007KT M05/M06 A2963 RMK A01 T10471059  RH  091%=      5-min Rain = 0
KFL1 212317Z 09007KT M05/M06 A2964 RMK A01 T10451057  RH  091%=      5-min Rain = 0
KFL1 212318Z 09006KT M05/M06 A2964 RMK A01 T10461058  RH  092%=      5-min Rain = 0
KFL1 212319Z 08006KT M05/M06 A2964 RMK A01 T10461057  RH  092%=      5-min Rain = 0
KFL1 212320Z 08009KT M05/M06 A2964 RMK A01 T10451056  RH  092%=      5-min Rain = 0
KFL1 212321Z 08007KT M05/M06 A2964 RMK A01 T10451056  RH  092%=      5-min Rain = 0
KFL1 212322Z 07006KT M05/M06 A2964 RMK A01 T10451056  RH  092%=      5-min Rain = 0
KFL1 212323Z 08007KT M05/M06 A2964 RMK A01 T10461057  RH  092%=      5-min Rain = 0
KFL1 212324Z 09009KT M04/M06 A2964 RMK A01 T10441055  RH  092%=      5-min Rain = 0
KFL1 212325Z 08008KT M04/M06 A2964 RMK A01 T10441055  RH  092%=      5-min Rain = 0
KFL1 212326Z 07008KT M04/M06 A2964 RMK A01 T10431055  RH  092%=      5-min Rain = 0
KFL1 212327Z 08009KT M05/M06 A2964 RMK A01 T10451056  RH  092%=      5-min Rain = 0
KFL1 212328Z 08010KT M05/M06 A2964 RMK A01 T10451056  RH  092%=      5-min Rain = 0
KFL1 212329Z 08009KT M05/M06 A2964 RMK A01 T10451057  RH  092%=      5-min Rain = 0
KFL1 212330Z 08011KT M05/M06 A2964 RMK A01 T10461058  RH  091%=      5-min Rain = 0
KFL1 212331Z 07011KT M05/M06 A2964 RMK A01 T10451057  RH  092%=      5-min Rain = 0
KFL1 212332Z 08008KT M05/M06 A2964 RMK A01 T10461057  RH  092%=      5-min Rain = 0
KFL1 212333Z 09010KT M05/M06 A2964 RMK A01 T10461057  RH  092%=      5-min Rain = 0
KFL1 212334Z 08008KT M05/M06 A2964 RMK A01 T10461057  RH  092%=      5-min Rain = 0
KFL1 212335Z 09009KT M05/M06 A2964 RMK A01 T10461056  RH  092%=      5-min Rain = 0
KFL1 212336Z 08009KT M05/M06 A2964 RMK A01 T10461057  RH  092%=      5-min Rain = 0
KFL1 212337Z 09009KT M05/M06 A2964 RMK A01 T10461056  RH  093%=      5-min Rain = 0
KFL1 212338Z 08011KT M05/M06 A2964 RMK A01 T10451055  RH  093%=      5-min Rain = 0
KFL1 212339Z 08010KT M05/M06 A2964 RMK A01 T10461057  RH  093%=      5-min Rain = 0
KFL1 212340Z 08008KT M05/M06 A2964 RMK A01 T10461057  RH  093%=      5-min Rain = 0
KFL1 212341Z 09008KT M05/M06 A2964 RMK A01 T10461056  RH  093%=      5-min Rain = 0
KFL1 212342Z 09010KT M05/M06 A2964 RMK A01 T10461055  RH  093%=      5-min Rain = 0
KFL1 212343Z 09009KT M05/M06 A2964 RMK A01 T10461055  RH  093%=      5-min Rain = 0
KFL1 212344Z 09009KT M05/M06 A2964 RMK A01 T10461056  RH  093%=      5-min Rain = 0
KFL1 212345Z 09010KT M05/M06 A2964 RMK A01 T10471057  RH  093%=      5-min Rain = 0
KFL1 212346Z 09008KT M05/M06 A2964 RMK A01 T10461056  RH  093%=      5-min Rain = 0
KFL1 212347Z 09008KT M05/M06 A2964 RMK A01 T10451055  RH  093%=      5-min Rain = 0
KFL1 212348Z 09008KT M05/M06 A2964 RMK A01 T10471057  RH  093%=      5-min Rain = 0
KFL1 212349Z 09007G12KT M05/M06 A2964 RMK A01 T10471056  RH  093%=      5-min Rain = 0
KFL1 212350Z 09010KT M05/M06 A2964 RMK A01 T10461055  RH  093%=      5-min Rain = 0
KFL1 212351Z 09011KT M05/M06 A2964 RMK A01 T10461055  RH  093%=      5-min Rain = 0
KFL1 212352Z 09008KT M05/M06 A2964 RMK A01 T10481057  RH  093%=      5-min Rain = 0
KFL1 212353Z 09007KT M05/M06 A2964 RMK A01 T10471056  RH  093%=      5-min Rain = 0
KFL1 212354Z 10009KT M05/M06 A2964 RMK A01 T10471056  RH  093%=      5-min Rain = 0
KFL1 212355Z 09008G13KT M05/M06 A2964 RMK A01 T10471057  RH  093%=      5-min Rain = 0
KFL1 212356Z 08009KT M05/M06 A2964 RMK A01 T10461056  RH  093%=      5-min Rain = 0
KFL1 212357Z 09009KT M05/M06 A2964 RMK A01 T10471056  RH  093%=      5-min Rain = 0
KFL1 212358Z 08009KT M05/M06 A2964 RMK A01 T10461055  RH  094%=      5-min Rain = 0
KFL1 212359Z 08009KT M05/M06 A2964 RMK A01 T10481057  RH  093%=      5-min Rain = 0
KFL1 220000Z 09009KT M05/M06 A2964 RMK A01 T10471056  RH  094%=      5-min Rain = 0
KFL1 220001Z 09008KT M05/M06 A2964 RMK A01 T10471056  RH  094%=      5-min Rain = 0
KFL1 220002Z 09008KT M05/M06 A2964 RMK A01 T10481057  RH  094%=      5-min Rain = 0
KFL1 220003Z 08009KT M05/M06 A2964 RMK A01 T10481057  RH  094%=      5-min Rain = 0
KFL1 220004Z 08010KT M05/M06 A2964 RMK A01 T10481056  RH  094%=      5-min Rain = 0
KFL1 220005Z 09009KT M05/M06 A2964 RMK A01 T10471056  RH  094%=      5-min Rain = 0
KFL1 220006Z 08010KT M05/M06 A2964 RMK A01 T10481056  RH  094%=      5-min Rain = 0
KFL1 220007Z 08008KT M05/M06 A2964 RMK A01 T10491057  RH  094%=      5-min Rain = 0
KFL1 220008Z 08007KT M05/M06 A2964 RMK A01 T10481056  RH  094%=      5-min Rain = 0
KFL1 220009Z 09008KT M05/M06 A2964 RMK A01 T10481055  RH  094%=      5-min Rain = 0
KFL1 220010Z 08010KT M05/M06 A2964 RMK A01 T10471055  RH  095%=      5-min Rain = 0
KFL1 220011Z 09009KT M05/M06 A2964 RMK A01 T10471055  RH  094%=      5-min Rain = 0
KFL1 220012Z 09007KT M05/M06 A2964 RMK A01 T10501057  RH  095%=      5-min Rain = 0
KFL1 220013Z 08007KT M05/M06 A2964 RMK A01 T10491056  RH  095%=      5-min Rain = 0
KFL1 220014Z 08007KT M05/M05 A2964 RMK A01 T10471054  RH  095%=      5-min Rain = 0
KFL1 220015Z 08008KT M05/M06 A2964 RMK A01 T10491056  RH  095%=      5-min Rain = 0
KFL1 220016Z 08008KT M05/M05 A2964 RMK A01 T10471054  RH  095%=      5-min Rain = 0
KFL1 220017Z 09008KT M05/M06 A2964 RMK A01 T10491056  RH  095%=      5-min Rain = 0
KFL1 220018Z 08006KT M05/M06 A2964 RMK A01 T10481055  RH  095%=      5-min Rain = 0
KFL1 220019Z 09007KT M05/M06 A2964 RMK A01 T10491056  RH  095%=      5-min Rain = 0
KFL1 220020Z 09007KT M05/M06 A2964 RMK A01 T10491056  RH  095%=      5-min Rain = 0
KFL1 220021Z 09008G13KT M05/M06 A2964 RMK A01 T10491056  RH  095%=      5-min Rain = 0
KFL1 220022Z 09008KT M05/M06 A2964 RMK A01 T10481055  RH  095%=      5-min Rain = 0
KFL1 220023Z 09010KT M05/M06 A2964 RMK A01 T10491056  RH  095%=      5-min Rain = 0
KFL1 220024Z 09010KT M05/M06 A2964 RMK A01 T10481055  RH  095%=      5-min Rain = 0
KFL1 220025Z 09009KT M05/M06 A2964 RMK A01 T10481055  RH  095%=      5-min Rain = 0
KFL1 220026Z 10009KT M05/M06 A2964 RMK A01 T10481055  RH  095%=      5-min Rain = 0
KFL1 220027Z 10008KT M05/M06 A2964 RMK A01 T10501057  RH  095%=      5-min Rain = 0
KFL1 220028Z 09009KT M05/M06 A2964 RMK A01 T10501057  RH  095%=      5-min Rain = 0
KFL1 220029Z 10008KT M05/M06 A2964 RMK A01 T10501057  RH  095%=      5-min Rain = 0
KFL1 220030Z 09009KT M05/M06 A2964 RMK A01 T10481055  RH  095%=      5-min Rain = 0
KFL1 220031Z 09010KT M05/M06 A2964 RMK A01 T10481055  RH  095%=      5-min Rain = 0
KFL1 220032Z 09010KT M05/M06 A2964 RMK A01 T10491055  RH  095%=      5-min Rain = 0
KFL1 220033Z 10008KT M05/M06 A2964 RMK A01 T10501057  RH  095%=      5-min Rain = 0
KFL1 220034Z 10007KT M05/M06 A2964 RMK A01 T10501057  RH  095%=      5-min Rain = 0
KFL1 220035Z 10006KT M05/M06 A2964 RMK A01 T10501057  RH  095%=      5-min Rain = 0
KFL1 220036Z 10009KT M05/M05 A2964 RMK A01 T10481054  RH  095%=      5-min Rain = 0
KFL1 220037Z 10010KT M05/M06 A2964 RMK A01 T10501056  RH  095%=      5-min Rain = 0
KFL1 220038Z 10008KT M05/M06 A2964 RMK A01 T10501057  RH  095%=      5-min Rain = 0
KFL1 220039Z 10009KT M05/M06 A2964 RMK A01 T10501057  RH  095%=      5-min Rain = 0
KFL1 220040Z 11007KT M05/M06 A2964 RMK A01 T10501056  RH  095%=      5-min Rain = 0
KFL1 220041Z 10009KT M05/M06 A2964 RMK A01 T10511057  RH  095%=      5-min Rain = 0
KFL1 220042Z 10008KT M05/M06 A2964 RMK A01 T10511057  RH  095%=      5-min Rain = 0
KFL1 220043Z 10008KT M05/M06 A2964 RMK A01 T10501056  RH  096%=      5-min Rain = 0
KFL1 220044Z 10007KT M05/M06 A2964 RMK A01 T10501056  RH  096%=      5-min Rain = 0
KFL1 220045Z 11007KT M05/M05 A2964 RMK A01 T10491054  RH  096%=      5-min Rain = 0
KFL1 220046Z 10006KT M05/M06 A2964 RMK A01 T10501055  RH  096%=      5-min Rain = 0
KFL1 220047Z 11006KT M05/M06 A2964 RMK A01 T10491055  RH  096%=      5-min Rain = 0
KFL1 220048Z 11005KT M05/M06 A2965 RMK A01 T10501056  RH  096%=      5-min Rain = 0
KFL1 220049Z 11005KT M05/M06 A2965 RMK A01 T10491055  RH  096%=      5-min Rain = 0
KFL1 220050Z 10007KT M05/M06 A2965 RMK A01 T10501056  RH  096%=      5-min Rain = 0
KFL1 220051Z 09007KT M05/M06 A2965 RMK A01 T10511057  RH  096%=      5-min Rain = 0
KFL1 220052Z 10006KT M05/M06 A2964 RMK A01 T10501056  RH  096%=      5-min Rain = 0
KFL1 220053Z 10006KT M05/M06 A2964 RMK A01 T10491055  RH  096%=      5-min Rain = 0
KFL1 220054Z 10005KT M05/M06 A2964 RMK A01 T10501055  RH  096%=      5-min Rain = 0
KFL1 220055Z 10007KT M05/M06 A2964 RMK A01 T10501056  RH  096%=      5-min Rain = 0
KFL1 220056Z 10009KT M05/M06 A2964 RMK A01 T10491055  RH  096%=      5-min Rain = 0
KFL1 220057Z 10008KT M05/M06 A2964 RMK A01 T10501055  RH  096%=      5-min Rain = 0
KFL1 220058Z 09007KT M05/M06 A2964 RMK A01 T10501055  RH  096%=      5-min Rain = 0
KFL1 220059Z 09007KT M05/M06 A2964 RMK A01 T10511056  RH  096%=      5-min Rain = 0
KFL1 220100Z 09007KT M05/M06 A2964 RMK A01 T10501056  RH  096%=      5-min Rain = 0
KFL1 220101Z 10006KT M05/M06 A2964 RMK A01 T10511057  RH  096%=      5-min Rain = 0
KFL1 220102Z 09007KT M05/M06 A2964 RMK A01 T10501055  RH  096%=      5-min Rain = 0
KFL1 220103Z 09007KT M05/M06 A2964 RMK A01 T10501056  RH  096%=      5-min Rain = 0
KFL1 220104Z 10007KT M05/M06 A2964 RMK A01 T10501055  RH  096%=      5-min Rain = 0
KFL1 220105Z 10006KT M05/M06 A2964 RMK A01 T10511056  RH  096%=      5-min Rain = 0
KFL1 220106Z 10006KT M05/M06 A2964 RMK A01 T10501055  RH  096%=      5-min Rain = 0
KFL1 220107Z 10006KT M05/M06 A2964 RMK A01 T10501055  RH  096%=      5-min Rain = 0
KFL1 220108Z 09007KT M05/M06 A2964 RMK A01 T10501055  RH  096%=      5-min Rain = 0
KFL1 220109Z 09008KT M05/M06 A2964 RMK A01 T10511056  RH  096%=      5-min Rain = 0
KFL1 220110Z 11008KT M05/M06 A2964 RMK A01 T10511056  RH  096%=      5-min Rain = 0
KFL1 220111Z 10007KT M05/M05 A2964 RMK A01 T10491054  RH  096%=      5-min Rain = 0
KFL1 220112Z 10007KT M05/M06 A2964 RMK A01 T10501055  RH  096%=      5-min Rain = 0
KFL1 220113Z 10006KT M05/M05 A2965 RMK A01 T10491053  RH  096%=      5-min Rain = 0
KFL1 220114Z 10006KT M05/M06 A2964 RMK A01 T10501055  RH  096%=      5-min Rain = 0
KFL1 220115Z 10006KT M05/M06 A2964 RMK A01 T10511056  RH  096%=      5-min Rain = 0
KFL1 220116Z 10008KT M05/M06 A2964 RMK A01 T10511056  RH  096%=      5-min Rain = 0
KFL1 220117Z 11007KT M05/M06 A2965 RMK A01 T10501055  RH  096%=      5-min Rain = 0
KFL1 220118Z 11006KT M05/M05 A2965 RMK A01 T10491054  RH  096%=      5-min Rain = 0
KFL1 220119Z 11006KT M05/M06 A2965 RMK A01 T10501055  RH  096%=      5-min Rain = 0
KFL1 220120Z 11007KT M05/M05 A2965 RMK A01 T10491054  RH  096%=      5-min Rain = 0
KFL1 220121Z 11005KT M05/M06 A2965 RMK A01 T10501055  RH  096%=      5-min Rain = 0
KFL1 220122Z 10007KT M05/M06 A2965 RMK A01 T10501055  RH  096%=      5-min Rain = 0
KFL1 220123Z 10007KT M05/M06 A2965 RMK A01 T10501055  RH  096%=      5-min Rain = 0
KFL1 220124Z 11009KT M05/M05 A2965 RMK A01 T10491054  RH  096%=      5-min Rain = 0
KFL1 220125Z 11007KT M05/M06 A2965 RMK A01 T10501055  RH  096%=      5-min Rain = 0
KFL1 220126Z 11007KT M05/M06 A2965 RMK A01 T10501055  RH  096%=      5-min Rain = 0
KFL1 220127Z 12008KT M05/M06 A2965 RMK A01 T10501055  RH  096%=      5-min Rain = 0
KFL1 220128Z 11010KT M05/M06 A2965 RMK A01 T10501055  RH  096%=      5-min Rain = 0
KFL1 220129Z 10007KT M05/M06 A2965 RMK A01 T10501055  RH  096%=      5-min Rain = 0
KFL1 220130Z 11008KT M05/M06 A2965 RMK A01 T10501055  RH  096%=      5-min Rain = 0
KFL1 220131Z 10007KT M05/M05 A2965 RMK A01 T10481053  RH  097%=      5-min Rain = 0
KFL1 220132Z 11008KT M05/M05 A2965 RMK A01 T10481053  RH  097%=      5-min Rain = 0
KFL1 220133Z 11007KT M05/M06 A2965 RMK A01 T10501055  RH  096%=      5-min Rain = 0
KFL1 220134Z 10009KT M05/M05 A2965 RMK A01 T10481053  RH  097%=      5-min Rain = 0
KFL1 220135Z 11009KT M05/M06 A2965 RMK A01 T10501055  RH  096%=      5-min Rain = 0
KFL1 220136Z 11007KT M05/M05 A2965 RMK A01 T10491054  RH  096%=      5-min Rain = 0
KFL1 220137Z 11008KT M05/M05 A2965 RMK A01 T10481053  RH  097%=      5-min Rain = 0
KFL1 220138Z 11008KT M05/M05 A2965 RMK A01 T10491054  RH  096%=      5-min Rain = 0
KFL1 220139Z 11008KT M05/M05 A2965 RMK A01 T10481053  RH  097%=      5-min Rain = 0
KFL1 220140Z 10008KT M05/M05 A2965 RMK A01 T10491054  RH  096%=      5-min Rain = 0
KFL1 220141Z 10007KT M05/M05 A2965 RMK A01 T10501054  RH  096%=      5-min Rain = 0
KFL1 220142Z 11008KT M05/M06 A2965 RMK A01 T10501055  RH  096%=      5-min Rain = 0
KFL1 220143Z 11007KT M05/M05 A2965 RMK A01 T10481053  RH  097%=      5-min Rain = 0
KFL1 220144Z 10007KT M05/M05 A2965 RMK A01 T10491053  RH  097%=      5-min Rain = 0
KFL1 220145Z 10007KT M05/M05 A2965 RMK A01 T10491054  RH  097%=      5-min Rain = 0
KFL1 220146Z 10008KT M05/M05 A2965 RMK A01 T10491054  RH  097%=      5-min Rain = 0
KFL1 220147Z 10007KT M05/M05 A2965 RMK A01 T10491054  RH  096%=      5-min Rain = 0
KFL1 220148Z 10009KT M05/M05 A2965 RMK A01 T10491054  RH  096%=      5-min Rain = 0
KFL1 220149Z 10009KT M05/M05 A2965 RMK A01 T10491054  RH  097%=      5-min Rain = 0
KFL1 220150Z 09009KT M05/M05 A2965 RMK A01 T10481053  RH  096%=      5-min Rain = 0
KFL1 220151Z 10008KT M05/M05 A2965 RMK A01 T10491054  RH  096%=      5-min Rain = 0
KFL1 220152Z 11008KT M05/M06 A2965 RMK A01 T10501055  RH  097%=      5-min Rain = 0
KFL1 220153Z 10007KT M05/M05 A2965 RMK A01 T10491053  RH  097%=      5-min Rain = 0
KFL1 220154Z 10007KT M05/M05 A2965 RMK A01 T10481053  RH  097%=      5-min Rain = 0
KFL1 220155Z 09006KT M05/M05 A2965 RMK A01 T10491054  RH  097%=      5-min Rain = 0
KFL1 220156Z 09006KT M05/M06 A2965 RMK A01 T10501055  RH  097%=      5-min Rain = 0
KFL1 220157Z 09007KT M05/M05 A2965 RMK A01 T10491054  RH  097%=      5-min Rain = 0
KFL1 220158Z 10007KT M05/M05 A2965 RMK A01 T10491054  RH  097%=      5-min Rain = 0
KFL1 220159Z 10008KT M05/M05 A2965 RMK A01 T10491054  RH  097%=      5-min Rain = 0
KFL1 220200Z 09007KT M05/M05 A2965 RMK A01 T10481053  RH  097%=      5-min Rain = 0
KFL1 220201Z 08007KT M05/M05 A2965 RMK A01 T10491053  RH  097%=      5-min Rain = 0
KFL1 220202Z 08007KT M05/M05 A2965 RMK A01 T10491053  RH  097%=      5-min Rain = 0
KFL1 220203Z 08007KT M05/M05 A2965 RMK A01 T10501054  RH  096%=      5-min Rain = 0
KFL1 220204Z 08006KT M05/M05 A2965 RMK A01 T10491054  RH  097%=      5-min Rain = 0
KFL1 220205Z 08007KT M05/M05 A2965 RMK A01 T10491054  RH  097%=      5-min Rain = 0
KFL1 220206Z 07005KT M05/M05 A2965 RMK A01 T10491054  RH  097%=      5-min Rain = 0
KFL1 220207Z 07005KT M05/M05 A2965 RMK A01 T10471052  RH  097%=      5-min Rain = 0
KFL1 220208Z 09006KT M05/M05 A2965 RMK A01 T10481052  RH  096%=      5-min Rain = 0
KFL1 220209Z 08009KT M05/M06 A2965 RMK A01 T10501055  RH  096%=      5-min Rain = 0
KFL1 220210Z 08009KT M05/M05 A2965 RMK A01 T10491054  RH  096%=      5-min Rain = 0
KFL1 220211Z 07010KT M05/M05 A2965 RMK A01 T10491054  RH  096%=      5-min Rain = 0
KFL1 220212Z 07008KT M05/M05 A2965 RMK A01 T10491054  RH  096%=      5-min Rain = 0
KFL1 220213Z 07008KT M05/M05 A2965 RMK A01 T10491054  RH  096%=      5-min Rain = 0
KFL1 220214Z 08010KT M05/M05 A2966 RMK A01 T10491054  RH  096%=      5-min Rain = 0
KFL1 220215Z 08010KT M05/M06 A2966 RMK A01 T10501055  RH  096%=      5-min Rain = 0
KFL1 220216Z 08009KT M05/M06 A2966 RMK A01 T10501055  RH  096%=      5-min Rain = 0
KFL1 220217Z 08009KT M05/M05 A2966 RMK A01 T10481053  RH  097%=      5-min Rain = 0
KFL1 220218Z 08010KT M05/M06 A2966 RMK A01 T10501055  RH  096%=      5-min Rain = 0
KFL1 220219Z 08009KT M05/M06 A2966 RMK A01 T10501055  RH  096%=      5-min Rain = 0
KFL1 220220Z 07010KT M05/M05 A2966 RMK A01 T10491054  RH  096%=      5-min Rain = 0
KFL1 220221Z 08009KT M05/M05 A2966 RMK A01 T10481053  RH  096%=      5-min Rain = 0
KFL1 220222Z 07008KT M05/M06 A2966 RMK A01 T10501055  RH  096%=      5-min Rain = 0
KFL1 220223Z 08007KT M05/M06 A2966 RMK A01 T10501055  RH  096%=      5-min Rain = 0
KFL1 220224Z 08009KT M05/M05 A2966 RMK A01 T10491054  RH  096%=      5-min Rain = 0
KFL1 220225Z 07009KT M05/M06 A2966 RMK A01 T10501055  RH  096%=      5-min Rain = 0
KFL1 220226Z 08008KT M05/M06 A2966 RMK A01 T10501055  RH  096%=      5-min Rain = 0
KFL1 220227Z 08008KT M05/M05 A2966 RMK A01 T10491054  RH  096%=      5-min Rain = 0
KFL1 220228Z 08008KT M05/M05 A2966 RMK A01 T10491054  RH  096%=      5-min Rain = 0
KFL1 220229Z 08008KT M05/M06 A2966 RMK A01 T10501055  RH  096%=      5-min Rain = 0
KFL1 220230Z 08010KT M05/M06 A2966 RMK A01 T10501055  RH  096%=      5-min Rain = 0
KFL1 220231Z 08008KT M05/M05 A2966 RMK A01 T10491054  RH  096%=      5-min Rain = 0
KFL1 220232Z 08010KT M05/M05 A2966 RMK A01 T10491054  RH  097%=      5-min Rain = 0
KFL1 220233Z 08008KT M05/M05 A2966 RMK A01 T10491054  RH  096%=      5-min Rain = 0
KFL1 220234Z 08008KT M05/M05 A2966 RMK A01 T10491054  RH  097%=      5-min Rain = 0
KFL1 220235Z 08008KT M05/M05 A2966 RMK A01 T10481053  RH  097%=      5-min Rain = 0
KFL1 220236Z 08010KT M05/M05 A2966 RMK A01 T10491054  RH  096%=      5-min Rain = 0
KFL1 220237Z 08009KT M05/M06 A2966 RMK A01 T10501055  RH  096%=      5-min Rain = 0
KFL1 220238Z 07007KT M05/M05 A2966 RMK A01 T10491054  RH  097%=      5-min Rain = 0
KFL1 220239Z 08008KT M05/M05 A2966 RMK A01 T10491054  RH  097%=      5-min Rain = 0
KFL1 220240Z 08009KT M05/M05 A2966 RMK A01 T10491054  RH  097%=      5-min Rain = 0
KFL1 220241Z 08008KT M05/M06 A2966 RMK A01 T10501055  RH  096%=      5-min Rain = 0
KFL1 220242Z 08009KT M05/M06 A2966 RMK A01 T10501055  RH  097%=      5-min Rain = 0
KFL1 220243Z 08008KT M05/M06 A2966 RMK A01 T10501055  RH  096%=      5-min Rain = 0
KFL1 220244Z 09009KT M05/M05 A2966 RMK A01 T10491054  RH  097%=      5-min Rain = 0
KFL1 220245Z 08008KT M05/M06 A2966 RMK A01 T10501055  RH  097%=      5-min Rain = 0
KFL1 220246Z 09008KT M05/M05 A2966 RMK A01 T10491054  RH  097%=      5-min Rain = 0
KFL1 220247Z 09008KT M05/M05 A2966 RMK A01 T10501054  RH  097%=      5-min Rain = 0
KFL1 220248Z 08009KT M05/M05 A2966 RMK A01 T10491054  RH  097%=      5-min Rain = 0
KFL1 220249Z 08009KT M05/M05 A2966 RMK A01 T10491053  RH  097%=      5-min Rain = 0
KFL1 220250Z 09009KT M05/M05 A2966 RMK A01 T10491054  RH  097%=      5-min Rain = 0
KFL1 220251Z 09008KT M05/M05 A2966 RMK A01 T10491054  RH  097%=      5-min Rain = 0
KFL1 220252Z 09008KT M05/M05 A2966 RMK A01 T10491054  RH  097%=      5-min Rain = 0
KFL1 220253Z 09009KT M05/M06 A2966 RMK A01 T10511055  RH  097%=      5-min Rain = 0
KFL1 220254Z 09007KT M05/M05 A2966 RMK A01 T10491054  RH  097%=      5-min Rain = 0
KFL1 220255Z 09008KT M05/M05 A2966 RMK A01 T10491054  RH  097%=      5-min Rain = 0
KFL1 220256Z 09009KT M05/M05 A2966 RMK A01 T10481053  RH  097%=      5-min Rain = 0
KFL1 220257Z 09008KT M05/M05 A2966 RMK A01 T10481053  RH  097%=      5-min Rain = 0
KFL1 220258Z 09008KT M05/M05 A2966 RMK A01 T10481053  RH  097%=      5-min Rain = 0
KFL1 220259Z 09008KT M05/M05 A2966 RMK A01 T10491054  RH  097%=      5-min Rain = 0
KFL1 220300Z 09010KT M05/M05 A2966 RMK A01 T10481053  RH  097%=      5-min Rain = 0
KFL1 220301Z 09009KT M05/M05 A2966 RMK A01 T10491054  RH  097%=      5-min Rain = 0
KFL1 220302Z 09008KT M05/M05 A2966 RMK A01 T10501054  RH  097%=      5-min Rain = 0
KFL1 220303Z 08008KT M05/M05 A2966 RMK A01 T10491054  RH  097%=      5-min Rain = 0
KFL1 220304Z 08009KT M05/M05 A2966 RMK A01 T10491054  RH  097%=      5-min Rain = 0
KFL1 220305Z 08010KT M05/M05 A2966 RMK A01 T10481053  RH  097%=      5-min Rain = 0
KFL1 220306Z 08009KT M05/M05 A2966 RMK A01 T10481053  RH  097%=      5-min Rain = 0
KFL1 220307Z 08008KT M05/M05 A2966 RMK A01 T10481053  RH  097%=      5-min Rain = 0
KFL1 220308Z 08008KT M05/M05 A2966 RMK A01 T10491053  RH  097%=      5-min Rain = 0
KFL1 220309Z 08007KT M05/M05 A2966 RMK A01 T10481053  RH  097%=      5-min Rain = 0
KFL1 220310Z 08009KT M05/M05 A2966 RMK A01 T10481053  RH  097%=      5-min Rain = 0
KFL1 220311Z 08009KT M05/M05 A2966 RMK A01 T10491053  RH  097%=      5-min Rain = 0
KFL1 220312Z 08008KT M05/M05 A2966 RMK A01 T10491054  RH  097%=      5-min Rain = 0
KFL1 220313Z 09008KT M05/M05 A2966 RMK A01 T10491053  RH  097%=      5-min Rain = 0
KFL1 220314Z 09009KT M05/M06 A2966 RMK A01 T10501055  RH  097%=      5-min Rain = 0
KFL1 220315Z 09008KT M05/M05 A2966 RMK A01 T10491054  RH  097%=      5-min Rain = 0
KFL1 220316Z 07007KT M05/M05 A2966 RMK A01 T10491054  RH  097%=      5-min Rain = 0
KFL1 220317Z 08010KT M05/M05 A2966 RMK A01 T10491054  RH  097%=      5-min Rain = 0
KFL1 220318Z 08008KT M05/M05 A2966 RMK A01 T10481053  RH  097%=      5-min Rain = 0
KFL1 220319Z 08008KT M05/M05 A2966 RMK A01 T10481053  RH  097%=      5-min Rain = 0
KFL1 220320Z 08008KT M05/M05 A2966 RMK A01 T10481053  RH  097%=      5-min Rain = 0
KFL1 220321Z 08007KT M05/M05 A2966 RMK A01 T10491054  RH  097%=      5-min Rain = 0
KFL1 220322Z 08006KT M05/M05 A2966 RMK A01 T10491053  RH  097%=      5-min Rain = 0
KFL1 220323Z 08007KT M05/M05 A2966 RMK A01 T10471052  RH  097%=      5-min Rain = 0
KFL1 220324Z 07007KT M05/M05 A2966 RMK A01 T10481053  RH  097%=      5-min Rain = 0
KFL1 220325Z 08008KT M05/M05 A2966 RMK A01 T10481053  RH  097%=      5-min Rain = 0
KFL1 220326Z 08007KT M05/M05 A2966 RMK A01 T10471052  RH  097%=      5-min Rain = 0
KFL1 220327Z 07008KT M05/M05 A2966 RMK A01 T10481053  RH  097%=      5-min Rain = 0
KFL1 220328Z 08007KT M05/M05 A2966 RMK A01 T10481053  RH  097%=      5-min Rain = 0
KFL1 220329Z 07007KT M05/M05 A2966 RMK A01 T10481052  RH  097%=      5-min Rain = 0
KFL1 220330Z 07007KT M05/M05 A2966 RMK A01 T10491054  RH  097%=      5-min Rain = 0
KFL1 220331Z 08007KT M05/M05 A2966 RMK A01 T10501054  RH  097%=      5-min Rain = 0
KFL1 220332Z 07007KT M05/M05 A2966 RMK A01 T10471052  RH  097%=      5-min Rain = 0
KFL1 220333Z 07007KT M05/M05 A2966 RMK A01 T10501054  RH  096%=      5-min Rain = 0
KFL1 220334Z 09008KT M05/M05 A2966 RMK A01 T10491054  RH  097%=      5-min Rain = 0
KFL1 220335Z 09008KT M05/M05 A2966 RMK A01 T10491054  RH  096%=      5-min Rain = 0
KFL1 220336Z 08007KT M05/M05 A2966 RMK A01 T10491054  RH  097%=      5-min Rain = 0
KFL1 220337Z 08007KT M05/M05 A2966 RMK A01 T10491053  RH  097%=      5-min Rain = 0
KFL1 220338Z 08009KT M05/M05 A2966 RMK A01 T10481053  RH  097%=      5-min Rain = 0
KFL1 220339Z 07008KT M05/M05 A2966 RMK A01 T10491053  RH  097%=      5-min Rain = 0
KFL1 220340Z 07005KT M05/M05 A2966 RMK A01 T10491053  RH  097%=      5-min Rain = 0
KFL1 220341Z 08007KT M05/M05 A2966 RMK A01 T10491054  RH  097%=      5-min Rain = 0
KFL1 220342Z 09007KT M05/M05 A2966 RMK A01 T10491053  RH  097%=      5-min Rain = 0
KFL1 220343Z 09009KT M05/M05 A2966 RMK A01 T10491053  RH  097%=      5-min Rain = 0
KFL1 220344Z 10010KT M05/M05 A2966 RMK A01 T10481053  RH  097%=      5-min Rain = 0
KFL1 220345Z 10008KT M05/M05 A2966 RMK A01 T10491054  RH  097%=      5-min Rain = 0
KFL1 220346Z 09007KT M05/M05 A2966 RMK A01 T10491054  RH  097%=      5-min Rain = 0
KFL1 220347Z 10010KT M05/M05 A2966 RMK A01 T10471052  RH  097%=      5-min Rain = 0
KFL1 220348Z 11009KT M05/M05 A2966 RMK A01 T10481053  RH  097%=      5-min Rain = 0
KFL1 220349Z 11010KT M05/M05 A2966 RMK A01 T10481053  RH  097%=      5-min Rain = 0
KFL1 220350Z 10010KT M05/M05 A2966 RMK A01 T10481052  RH  097%=      5-min Rain = 0
KFL1 220351Z 10009KT M05/M05 A2966 RMK A01 T10491054  RH  097%=      5-min Rain = 0
KFL1 220352Z 10009KT M05/M05 A2966 RMK A01 T10481053  RH  097%=      5-min Rain = 0
KFL1 220353Z 11008KT M05/M05 A2967 RMK A01 T10481052  RH  097%=      5-min Rain = 0
KFL1 220354Z 11009KT M05/M05 A2967 RMK A01 T10471052  RH  097%=      5-min Rain = 0
KFL1 220355Z 10008KT M05/M05 A2967 RMK A01 T10471052  RH  097%=      5-min Rain = 0
KFL1 220356Z 09010KT M05/M05 A2967 RMK A01 T10461050  RH  097%=      5-min Rain = 0
KFL1 220357Z 09008KT M05/M05 A2967 RMK A01 T10471051  RH  097%=      5-min Rain = 0
KFL1 220358Z 09008KT M05/M05 A2967 RMK A01 T10471052  RH  097%=      5-min Rain = 0
KFL1 220359Z 08009KT M05/M05 A2967 RMK A01 T10461050  RH  097%=      5-min Rain = 0
KFL1 220400Z 09010KT M05/M05 A2967 RMK A01 T10471051  RH  097%=      5-min Rain = 0
KFL1 220401Z 09009KT M05/M05 A2967 RMK A01 T10471051  RH  097%=      5-min Rain = 0
KFL1 220402Z 07009KT M05/M05 A2967 RMK A01 T10481052  RH  097%=      5-min Rain = 0
KFL1 220403Z 08008KT M05/M05 A2967 RMK A01 T10461051  RH  097%=      5-min Rain = 0
KFL1 220404Z 08009KT M05/M05 A2967 RMK A01 T10461051  RH  097%=      5-min Rain = 0
KFL1 220405Z 08008KT M05/M05 A2967 RMK A01 T10471051  RH  097%=      5-min Rain = 0
KFL1 220406Z 08008KT M05/M05 A2967 RMK A01 T10461051  RH  097%=      5-min Rain = 0
KFL1 220407Z 09008KT M05/M05 A2967 RMK A01 T10461050  RH  097%=      5-min Rain = 0
KFL1 220408Z 08008KT M05/M05 A2967 RMK A01 T10471052  RH  097%=      5-min Rain = 0
KFL1 220409Z 08008KT M05/M05 A2967 RMK A01 T10481052  RH  097%=      5-min Rain = 0
KFL1 220410Z 08007KT M05/M05 A2967 RMK A01 T10461050  RH  097%=      5-min Rain = 0
KFL1 220411Z 08007KT M05/M05 A2968 RMK A01 T10471051  RH  097%=      5-min Rain = 0
KFL1 220412Z 08007KT M05/M05 A2967 RMK A01 T10471052  RH  097%=      5-min Rain = 0
KFL1 220413Z 08006KT M05/M05 A2967 RMK A01 T10481052  RH  097%=      5-min Rain = 0
KFL1 220414Z 08008KT M05/M05 A2967 RMK A01 T10481052  RH  097%=      5-min Rain = 0
KFL1 220415Z 08007KT M05/M05 A2968 RMK A01 T10471052  RH  097%=      5-min Rain = 0
KFL1 220416Z 08008KT M05/M05 A2968 RMK A01 T10461051  RH  097%=      5-min Rain = 0
KFL1 220417Z 08008KT M05/M05 A2968 RMK A01 T10461051  RH  097%=      5-min Rain = 0
KFL1 220418Z 08009KT M05/M05 A2968 RMK A01 T10461051  RH  097%=      5-min Rain = 0
KFL1 220419Z 08008KT M05/M05 A2968 RMK A01 T10471051  RH  097%=      5-min Rain = 0
KFL1 220420Z 08007KT M05/M05 A2968 RMK A01 T10481053  RH  097%=      5-min Rain = 0
KFL1 220421Z 08008KT M05/M05 A2968 RMK A01 T10471052  RH  097%=      5-min Rain = 0
KFL1 220422Z 08008KT M05/M05 A2968 RMK A01 T10471052  RH  097%=      5-min Rain = 0
KFL1 220423Z 08008KT M05/M05 A2968 RMK A01 T10461050  RH  097%=      5-min Rain = 0
KFL1 220424Z 07008KT M05/M05 A2968 RMK A01 T10471052  RH  097%=      5-min Rain = 0
KFL1 220425Z 08008KT M05/M05 A2968 RMK A01 T10481053  RH  097%=      5-min Rain = 0
KFL1 220426Z 08008KT M05/M05 A2968 RMK A01 T10471052  RH  097%=      5-min Rain = 0
KFL1 220427Z 08007KT M05/M05 A2968 RMK A01 T10461050  RH  097%=      5-min Rain = 0
KFL1 220428Z 08008KT M05/M05 A2968 RMK A01 T10481052  RH  097%=      5-min Rain = 0
KFL1 220429Z 08007KT M05/M05 A2968 RMK A01 T10471052  RH  097%=      5-min Rain = 0
KFL1 220430Z 08006KT M05/M05 A2968 RMK A01 T10471051  RH  097%=      5-min Rain = 0
KFL1 220431Z 08007KT M05/M05 A2968 RMK A01 T10471052  RH  097%=      5-min Rain = 0
KFL1 220432Z 08008KT M05/M05 A2968 RMK A01 T10471051  RH  097%=      5-min Rain = 0
KFL1 220433Z 09007KT M05/M05 A2968 RMK A01 T10471052  RH  097%=      5-min Rain = 0
KFL1 220434Z 09008KT M05/M05 A2968 RMK A01 T10471051  RH  097%=      5-min Rain = 0
KFL1 220435Z 10010KT M05/M05 A2968 RMK A01 T10461051  RH  097%=      5-min Rain = 0
KFL1 220436Z 10008KT M05/M05 A2968 RMK A01 T10481052  RH  097%=      5-min Rain = 0
KFL1 220437Z 09009KT M05/M05 A2968 RMK A01 T10461050  RH  097%=      5-min Rain = 0
KFL1 220438Z 09009KT M05/M05 A2968 RMK A01 T10461051  RH  097%=      5-min Rain = 0
KFL1 220439Z 10009KT M05/M05 A2968 RMK A01 T10461050  RH  097%=      5-min Rain = 0
KFL1 220440Z 09009KT M05/M05 A2968 RMK A01 T10471052  RH  097%=      5-min Rain = 0
KFL1 220441Z 09008KT M05/M05 A2967 RMK A01 T10471052  RH  097%=      5-min Rain = 0
KFL1 220442Z 09008KT M05/M05 A2967 RMK A01 T10471052  RH  097%=      5-min Rain = 0
KFL1 220443Z 10009KT M05/M05 A2967 RMK A01 T10481052  RH  097%=      5-min Rain = 0
KFL1 220444Z 10008KT M05/M05 A2968 RMK A01 T10471052  RH  097%=      5-min Rain = 0
KFL1 220445Z 10008KT M05/M05 A2968 RMK A01 T10461050  RH  097%=      5-min Rain = 0
KFL1 220446Z 09008KT M05/M05 A2968 RMK A01 T10471052  RH  097%=      5-min Rain = 0
KFL1 220447Z 09008KT M05/M05 A2968 RMK A01 T10481052  RH  097%=      5-min Rain = 0
KFL1 220448Z 09007KT M05/M05 A2968 RMK A01 T10471051  RH  097%=      5-min Rain = 0
KFL1 220449Z 08009KT M05/M05 A2968 RMK A01 T10471051  RH  097%=      5-min Rain = 0
KFL1 220450Z 08008KT M05/M05 A2968 RMK A01 T10481052  RH  097%=      5-min Rain = 0
KFL1 220451Z 08009KT M05/M05 A2968 RMK A01 T10471051  RH  097%=      5-min Rain = 0
KFL1 220452Z 10008KT M05/M05 A2968 RMK A01 T10471051  RH  097%=      5-min Rain = 0
KFL1 220453Z 10007KT M05/M05 A2968 RMK A01 T10481052  RH  097%=      5-min Rain = 0
KFL1 220454Z 10008KT M05/M05 A2968 RMK A01 T10461051  RH  097%=      5-min Rain = 0
KFL1 220455Z 09007KT M05/M05 A2968 RMK A01 T10471052  RH  097%=      5-min Rain = 0
KFL1 220456Z 09008KT M05/M05 A2968 RMK A01 T10461050  RH  097%=      5-min Rain = 0
KFL1 220457Z 09009KT M05/M05 A2968 RMK A01 T10471051  RH  097%=      5-min Rain = 0
KFL1 220458Z 09008KT M05/M05 A2968 RMK A01 T10481052  RH  097%=      5-min Rain = 0
KFL1 220459Z 09008KT M05/M05 A2968 RMK A01 T10481052  RH  097%=      5-min Rain = 0
KFL1 220500Z 09008KT M05/M05 A2968 RMK A01 T10481052  RH  097%=      5-min Rain = 0
KFL1 220501Z 09009KT M05/M05 A2968 RMK A01 T10471051  RH  097%=      5-min Rain = 0
KFL1 220502Z 10008KT M05/M05 A2968 RMK A01 T10471051  RH  097%=      5-min Rain = 0
KFL1 220503Z 10008KT M05/M05 A2968 RMK A01 T10461051  RH  097%=      5-min Rain = 0
KFL1 220504Z 10008KT M05/M05 A2968 RMK A01 T10451050  RH  097%=      5-min Rain = 0
KFL1 220505Z 09008KT M05/M05 A2968 RMK A01 T10471052  RH  097%=      5-min Rain = 0
KFL1 220506Z 09009KT M05/M05 A2968 RMK A01 T10481052  RH  097%=      5-min Rain = 0
KFL1 220507Z 10008KT M05/M05 A2968 RMK A01 T10471051  RH  097%=      5-min Rain = 0
KFL1 220508Z 10009KT M05/M05 A2968 RMK A01 T10481052  RH  097%=      5-min Rain = 0
KFL1 220509Z 10007KT M05/M05 A2968 RMK A01 T10471052  RH  097%=      5-min Rain = 0
KFL1 220510Z 10007KT M05/M05 A2968 RMK A01 T10471051  RH  097%=      5-min Rain = 0
KFL1 220511Z 08008KT M05/M05 A2968 RMK A01 T10461050  RH  097%=      5-min Rain = 0
KFL1 220512Z 10007KT M05/M05 A2969 RMK A01 T10461051  RH  097%=      5-min Rain = 0
KFL1 220513Z 10007KT M05/M05 A2968 RMK A01 T10461051  RH  097%=      5-min Rain = 0
KFL1 220514Z 10006KT M05/M05 A2968 RMK A01 T10461050  RH  097%=      5-min Rain = 0
KFL1 220515Z 10007KT M05/M05 A2968 RMK A01 T10471051  RH  097%=      5-min Rain = 0
KFL1 220516Z 10009KT M05/M05 A2968 RMK A01 T10481052  RH  097%=      5-min Rain = 0
KFL1 220517Z 10007KT M05/M05 A2968 RMK A01 T10471051  RH  097%=      5-min Rain = 0
KFL1 220518Z 10006KT M05/M05 A2968 RMK A01 T10481053  RH  097%=      5-min Rain = 0
KFL1 220519Z 10006KT M05/M05 A2968 RMK A01 T10461051  RH  097%=      5-min Rain = 0
KFL1 220520Z 10005KT M05/M05 A2968 RMK A01 T10461050  RH  097%=      5-min Rain = 0
KFL1 220521Z 10006KT M05/M05 A2968 RMK A01 T10461050  RH  097%=      5-min Rain = 0
KFL1 220522Z 09005KT M05/M05 A2968 RMK A01 T10461050  RH  097%=      5-min Rain = 0
KFL1 220523Z 09005KT M05/M05 A2968 RMK A01 T10461051  RH  097%=      5-min Rain = 0
KFL1 220524Z 09006KT M05/M05 A2968 RMK A01 T10461051  RH  097%=      5-min Rain = 0
KFL1 220525Z 12007KT M05/M05 A2968 RMK A01 T10461050  RH  097%=      5-min Rain = 0
KFL1 220526Z 10006KT M05/M05 A2968 RMK A01 T10461050  RH  097%=      5-min Rain = 0
KFL1 220527Z 10006KT M05/M05 A2968 RMK A01 T10471051  RH  097%=      5-min Rain = 0
KFL1 220528Z 09005KT M05/M05 A2968 RMK A01 T10461050  RH  097%=      5-min Rain = 0
KFL1 220529Z 10005KT M05/M05 A2968 RMK A01 T10461050  RH  097%=      5-min Rain = 0
KFL1 220530Z 10005KT M05/M05 A2968 RMK A01 T10461051  RH  097%=      5-min Rain = 0
KFL1 220531Z 11005KT M05/M05 A2968 RMK A01 T10451050  RH  097%=      5-min Rain = 0
KFL1 220532Z 11005KT M05/M05 A2968 RMK A01 T10461050  RH  097%=      5-min Rain = 0
KFL1 220533Z 10004KT M05/M05 A2968 RMK A01 T10451049  RH  097%=      5-min Rain = 0
KFL1 220534Z 11005KT M05/M05 A2968 RMK A01 T10451049  RH  097%=      5-min Rain = 0
KFL1 220535Z 10004KT M05/M05 A2968 RMK A01 T10471051  RH  097%=      5-min Rain = 0
KFL1 220536Z 12004KT M05/M05 A2968 RMK A01 T10451050  RH  097%=      5-min Rain = 0
KFL1 220537Z 12005KT M05/M05 A2968 RMK A01 T10451049  RH  097%=      5-min Rain = 0
KFL1 220538Z 11005KT M05/M05 A2968 RMK A01 T10461050  RH  097%=      5-min Rain = 0
KFL1 220539Z 11003KT M05/M05 A2968 RMK A01 T10461050  RH  097%=      5-min Rain = 0
KFL1 220540Z 12004KT M04/M05 A2968 RMK A01 T10441048  RH  097%=      5-min Rain = 0
KFL1 220541Z 11003KT M05/M05 A2968 RMK A01 T10451049  RH  097%=      5-min Rain = 0
KFL1 220542Z 12004KT M05/M05 A2968 RMK A01 T10451049  RH  097%=      5-min Rain = 0
KFL1 220543Z 11004KT M05/M05 A2968 RMK A01 T10451049  RH  097%=      5-min Rain = 0
KFL1 220544Z 11004KT M04/M05 A2968 RMK A01 T10441048  RH  097%=      5-min Rain = 0
KFL1 220545Z 12005KT M05/M05 A2968 RMK A01 T10451048  RH  097%=      5-min Rain = 0
KFL1 220546Z 12004KT M04/M05 A2968 RMK A01 T10431047  RH  097%=      5-min Rain = 0
KFL1 220547Z 11003KT M04/M05 A2968 RMK A01 T10441048  RH  097%=      5-min Rain = 0
KFL1 220548Z 11003KT M04/M05 A2968 RMK A01 T10441048  RH  097%=      5-min Rain = 0
KFL1 220549Z 12004KT M04/M05 A2968 RMK A01 T10421045  RH  097%=      5-min Rain = 0
KFL1 220550Z 13004KT M04/M05 A2968 RMK A01 T10431046  RH  097%=      5-min Rain = 0
KFL1 220551Z 13006KT M04/M05 A2968 RMK A01 T10431046  RH  097%=      5-min Rain = 0
KFL1 220552Z 13007KT M04/M05 A2968 RMK A01 T10431047  RH  097%=      5-min Rain = 0
KFL1 220553Z 12005KT M04/M05 A2968 RMK A01 T10431046  RH  097%=      5-min Rain = 0
KFL1 220554Z 13006KT M04/M05 A2968 RMK A01 T10431046  RH  097%=      5-min Rain = 0
KFL1 220555Z 14005KT M04/M05 A2968 RMK A01 T10421045  RH  098%=      5-min Rain = 0
KFL1 220556Z 14009KT M04/M05 A2968 RMK A01 T10431047  RH  097%=      5-min Rain = 0
KFL1 220557Z 14009KT M04/M05 A2967 RMK A01 T10421045  RH  098%=      5-min Rain = 0
KFL1 220558Z 14007KT M04/M04 A2967 RMK A01 T10411044  RH  098%=      5-min Rain = 0
KFL1 220559Z 13008KT M04/M04 A2967 RMK A01 T10401044  RH  098%=      5-min Rain = 0

Page generated in 0.0841 seconds.